| time (UTC) | temp F | wind direction | speed MPH | gust MPH | rain 1hr in | rain 24hr in | rain mn in | humidity % | barometer mb |
| 20260905140959 | 74 | 92 | 0.0 | 4.0 | 0.00 | 0.03 | 0.01 | 79 | 1011.2 |
| 20260905140858 | 74 | 57 | 0.0 | 4.0 | 0.00 | 0.03 | 0.01 | 79 | 1011.2 |
| 20260905140659 | 74 | 140 | 1.0 | 4.0 | 0.00 | 0.03 | 0.01 | 80 | 1011.1 |
| 20260905140600 | 74 | 57 | 0.0 | 4.0 | 0.00 | 0.03 | 0.01 | 79 | 1011.1 |
| 20260905140501 | 74 | 57 | 0.0 | 4.0 | 0.00 | 0.03 | 0.01 | 80 | 1011.1 |
| 20260905140359 | 74 | 57 | 3.0 | 4.0 | 0.00 | 0.03 | 0.01 | 81 | 1011.1 |
| 20260905140258 | 74 | 43 | 2.0 | 4.0 | 0.00 | 0.03 | 0.01 | 82 | 1011.1 |
| 20260905140159 | 74 | 102 | 0.0 | 4.0 | 0.00 | 0.03 | 0.01 | 82 | 1011.1 |
| 20260905140058 | 74 | 103 | 1.0 | 4.0 | 0.00 | 0.03 | 0.01 | 83 | 1011.1 |
| 20260905140001 | 74 | 48 | 0.0 | 5.0 | 0.00 | 0.03 | 0.01 | 82 | 1011.1 |
| 20260905135858 | 74 | 48 | 0.0 | 5.0 | 0.00 | 0.03 | 0.01 | 82 | 1011.1 |
| 20260905135758 | 74 | 48 | 1.0 | 5.0 | 0.00 | 0.03 | 0.01 | 81 | 1011.1 |
| 20260905135658 | 74 | 155 | 1.0 | 5.0 | 0.00 | 0.03 | 0.01 | 82 | 1011.1 |
| 20260905135459 | 74 | 16 | 0.0 | 5.0 | 0.00 | 0.03 | 0.01 | 82 | 1011.1 |
| 20260905135258 | 74 | 16 | 1.0 | 5.0 | 0.00 | 0.03 | 0.01 | 81 | 1011.1 |
| 20260905135159 | 74 | 16 | 1.0 | 5.0 | 0.00 | 0.03 | 0.01 | 80 | 1011.1 |
| 20260905135000 | 74 | 54 | 2.0 | 4.0 | 0.00 | 0.03 | 0.01 | 81 | 1011.1 |
| 20260905134859 | 74 | 54 | 2.0 | 4.0 | 0.00 | 0.03 | 0.01 | 81 | 1011.2 |
| 20260905134757 | 74 | 50 | 2.0 | 4.0 | 0.00 | 0.03 | 0.01 | 82 | 1011.2 |
| 20260905134658 | 74 | 59 | 2.0 | 3.0 | 0.00 | 0.03 | 0.01 | 84 | 1011.1 |
| 20260905134558 | 74 | 89 | 0.0 | 1.0 | 0.00 | 0.03 | 0.01 | 84 | 1011.1 |
| 20260905134502 | 73 | 89 | 0.0 | 1.0 | 0.00 | 0.03 | 0.01 | 83 | 1011.2 |
| 20260905134259 | 73 | 89 | 0.0 | 2.0 | 0.00 | 0.03 | 0.01 | 83 | 1011.2 |
| 20260905134157 | 73 | 89 | 0.0 | 4.0 | 0.00 | 0.03 | 0.01 | 82 | 1011.3 |
| 20260905134059 | 73 | 89 | 0.0 | 4.0 | 0.00 | 0.03 | 0.01 | 82 | 1011.4 |
| 20260905134000 | 73 | 89 | 1.0 | 4.0 | 0.00 | 0.03 | 0.01 | 83 | 1011.3 |
| 20260905133758 | 73 | 89 | 0.0 | 4.0 | 0.00 | 0.03 | 0.01 | 83 | 1011.4 |
| 20260905133658 | 73 | 89 | 0.0 | 4.0 | 0.00 | 0.03 | 0.01 | 83 | 1011.4 |
| 20260905133559 | 73 | 89 | 0.0 | 4.0 | 0.00 | 0.03 | 0.01 | 83 | 1011.4 |
| 20260905133500 | 73 | 88 | 1.0 | 4.0 | 0.00 | 0.03 | 0.01 | 83 | 1011.4 |
| 20260905133358 | 73 | 87 | 1.0 | 4.0 | 0.00 | 0.03 | 0.01 | 83 | 1011.4 |
| 20260905133157 | 73 | 141 | 1.0 | 3.0 | 0.00 | 0.03 | 0.01 | 84 | 1011.5 |
| 20260905133058 | 73 | 141 | 1.0 | 3.0 | 0.00 | 0.03 | 0.01 | 85 | 1011.4 |
| 20260905133000 | 73 | 93 | 0.0 | 3.0 | 0.00 | 0.03 | 0.01 | 85 | 1011.4 |
| 20260905132758 | 72 | 103 | 0.0 | 2.0 | 0.00 | 0.03 | 0.01 | 84 | 1011.4 |
| 20260905132659 | 72 | 103 | 0.0 | 2.0 | 0.00 | 0.03 | 0.01 | 83 | 1011.4 |
| 20260905132558 | 72 | 103 | 1.0 | 2.0 | 0.00 | 0.03 | 0.01 | 84 | 1011.4 |
| 20260905132358 | 72 | 103 | 0.0 | 2.0 | 0.00 | 0.03 | 0.01 | 84 | 1011.5 |
| 20260905132258 | 72 | 103 | 0.0 | 2.0 | 0.00 | 0.03 | 0.01 | 85 | 1011.4 |
| 20260905132157 | 72 | 103 | 0.0 | 2.0 | 0.00 | 0.03 | 0.01 | 84 | 1011.4 |
| 20260905132058 | 72 | 103 | 0.0 | 2.0 | 0.00 | 0.03 | 0.01 | 85 | 1011.5 |
| 20260905131959 | 72 | 103 | 0.0 | 2.0 | 0.00 | 0.03 | 0.01 | 85 | 1011.6 |
| 20260905131858 | 72 | 103 | 0.0 | 2.0 | 0.00 | 0.03 | 0.01 | 85 | 1011.6 |
| 20260905131758 | 72 | 103 | 0.0 | 2.0 | 0.00 | 0.03 | 0.01 | 85 | 1011.5 |
| 20260905131702 | 72 | 103 | 0.0 | 2.0 | 0.00 | 0.03 | 0.01 | 85 | 1011.5 |
| 20260905131557 | 72 | 103 | 0.0 | 2.0 | 0.00 | 0.03 | 0.01 | 85 | 1011.5 |
| 20260905131359 | 72 | 103 | 0.0 | 2.0 | 0.00 | 0.03 | 0.01 | 85 | 1011.6 |
| 20260905131259 | 72 | 103 | 0.0 | 2.0 | 0.00 | 0.03 | 0.01 | 84 | 1011.6 |
| 20260905131158 | 72 | 103 | 0.0 | 2.0 | 0.00 | 0.03 | 0.01 | 85 | 1011.5 |
| 20260905131058 | 72 | 103 | 0.0 | 2.0 | 0.00 | 0.03 | 0.01 | 86 | 1011.5 |
| 20260905130959 | 72 | 103 | 0.0 | 2.0 | 0.00 | 0.03 | 0.01 | 86 | 1011.5 |
| 20260905130858 | 72 | 103 | 0.0 | 2.0 | 0.00 | 0.03 | 0.01 | 86 | 1011.5 |
| 20260905130800 | 72 | 103 | 0.0 | 2.0 | 0.00 | 0.03 | 0.01 | 86 | 1011.5 |
| 20260905130559 | 72 | 103 | 0.0 | 2.0 | 0.00 | 0.03 | 0.01 | 85 | 1011.4 |
| 20260905130459 | 72 | 103 | 0.0 | 2.0 | 0.00 | 0.03 | 0.01 | 86 | 1011.3 |
| 20260905130258 | 72 | 103 | 0.0 | 2.0 | 0.00 | 0.03 | 0.01 | 85 | 1011.3 |
| 20260905130158 | 72 | 103 | 2.0 | 2.0 | 0.00 | 0.03 | 0.01 | 87 | 1011.3 |
| 20260905130058 | 72 | 103 | 0.0 | 2.0 | 0.00 | 0.03 | 0.01 | 86 | 1011.4 |
| 20260905130000 | 72 | 103 | 0.0 | 2.0 | 0.00 | 0.03 | 0.01 | 86 | 1011.3 |
| 20260905125858 | 72 | 103 | 0.0 | 2.0 | 0.00 | 0.03 | 0.01 | 86 | 1011.3 |
| 20260905125759 | 72 | 103 | 2.0 | 2.0 | 0.00 | 0.03 | 0.01 | 87 | 1011.3 |
| 20260905125700 | 72 | 103 | 0.0 | 2.0 | 0.00 | 0.03 | 0.01 | 86 | 1011.3 |
| 20260905125559 | 72 | 103 | 0.0 | 2.0 | 0.00 | 0.03 | 0.01 | 85 | 1011.3 |
| 20260905125459 | 72 | 103 | 0.0 | 2.0 | 0.00 | 0.03 | 0.01 | 85 | 1011.4 |
| 20260905125359 | 72 | 103 | 0.0 | 3.0 | 0.00 | 0.03 | 0.01 | 86 | 1011.4 |
| 20260905125258 | 72 | 81 | 0.0 | 4.0 | 0.00 | 0.03 | 0.01 | 85 | 1011.4 |
| 20260905125200 | 72 | 81 | 1.0 | 4.0 | 0.00 | 0.03 | 0.01 | 85 | 1011.5 |
| 20260905125058 | 72 | 81 | 0.0 | 4.0 | 0.00 | 0.03 | 0.01 | 85 | 1011.3 |
| 20260905125000 | 72 | 81 | 1.0 | 4.0 | 0.00 | 0.03 | 0.01 | 85 | 1011.4 |
| 20260905124857 | 72 | 81 | 1.0 | 4.0 | 0.00 | 0.03 | 0.01 | 85 | 1011.4 |
| 20260905124758 | 72 | 81 | 0.0 | 4.0 | 0.00 | 0.03 | 0.01 | 85 | 1011.3 |
| 20260905124559 | 72 | 81 | 0.0 | 4.0 | 0.00 | 0.03 | 0.01 | 85 | 1011.3 |
| 20260905124502 | 72 | 81 | 1.0 | 4.0 | 0.00 | 0.03 | 0.01 | 85 | 1011.3 |
| 20260905124358 | 72 | 46 | 1.0 | 4.0 | 0.00 | 0.03 | 0.01 | 86 | 1011.2 |
| 20260905124158 | 72 | 317 | 1.0 | 4.0 | 0.00 | 0.03 | 0.01 | 85 | 1011.1 |
| 20260905124057 | 72 | 316 | 2.0 | 4.0 | 0.00 | 0.03 | 0.01 | 86 | 1011.1 |
| 20260905124000 | 71 | 75 | 2.0 | 3.0 | 0.00 | 0.03 | 0.01 | 86 | 1011.2 |
| 20260905123858 | 71 | 75 | 2.0 | 2.0 | 0.00 | 0.03 | 0.01 | 87 | 1011.1 |
| 20260905123759 | 71 | 62 | 0.0 | 1.0 | 0.00 | 0.03 | 0.01 | 87 | 1011.1 |
| 20260905123658 | 71 | 62 | 0.0 | 1.0 | 0.00 | 0.03 | 0.01 | 87 | 1011.1 |
| 20260905123559 | 71 | 62 | 0.0 | 1.0 | 0.00 | 0.03 | 0.01 | 88 | 1011.1 |
| 20260905123459 | 71 | 62 | 0.0 | 1.0 | 0.00 | 0.03 | 0.01 | 89 | 1011.1 |
| 20260905123258 | 71 | 62 | 0.0 | 1.0 | 0.00 | 0.03 | 0.01 | 90 | 1011.1 |
| 20260905123158 | 71 | 62 | 0.0 | 1.0 | 0.00 | 0.03 | 0.01 | 90 | 1011.1 |
| 20260905123057 | 71 | 62 | 0.0 | 1.0 | 0.00 | 0.03 | 0.01 | 89 | 1011.1 |
| 20260905123001 | 71 | 62 | 0.0 | 1.0 | 0.00 | 0.03 | 0.01 | 88 | 1011.1 |
| 20260905122757 | 71 | 62 | 0.0 | 2.0 | 0.00 | 0.03 | 0.01 | 90 | 1011.1 |
| 20260905122557 | 71 | 62 | 0.0 | 2.0 | 0.00 | 0.03 | 0.01 | 89 | 1011.1 |
| 20260905122501 | 71 | 62 | 0.0 | 2.0 | 0.00 | 0.03 | 0.01 | 89 | 1011.1 |
| 20260905122357 | 71 | 62 | 0.0 | 2.0 | 0.00 | 0.03 | 0.01 | 89 | 1011.1 |
| 20260905122258 | 70 | 62 | 0.0 | 2.0 | 0.00 | 0.03 | 0.01 | 90 | 1011.1 |
| 20260905122157 | 70 | 62 | 0.0 | 2.0 | 0.00 | 0.03 | 0.01 | 89 | 1011.1 |
| 20260905122058 | 70 | 62 | 0.0 | 2.0 | 0.00 | 0.03 | 0.01 | 90 | 1011.0 |
| 20260905122000 | 70 | 62 | 0.0 | 2.0 | 0.00 | 0.03 | 0.01 | 90 | 1011.0 |
| 20260905121859 | 70 | 62 | 0.0 | 2.0 | 0.00 | 0.03 | 0.01 | 91 | 1011.1 |
| 20260905121758 | 70 | 62 | 2.0 | 2.0 | 0.00 | 0.03 | 0.01 | 92 | 1011.0 |
| 20260905121658 | 70 | 140 | 0.0 | 0.0 | 0.00 | 0.03 | 0.01 | 93 | 1011.1 |
| 20260905121558 | 70 | 140 | 0.0 | 0.0 | 0.00 | 0.03 | 0.01 | 93 | 1011.1 |
| 20260905121459 | 70 | 140 | 0.0 | 0.0 | 0.00 | 0.03 | 0.01 | 92 | 1011.1 |
| 20260905121358 | 70 | 140 | 0.0 | 0.0 | 0.00 | 0.03 | 0.01 | 92 | 1011.1 |
| 20260905121258 | 70 | 140 | 0.0 | 0.0 | 0.00 | 0.03 | 0.01 | 92 | 1011.1 |
| 20260905121158 | 70 | 140 | 0.0 | 0.0 | 0.00 | 0.03 | 0.01 | 92 | 1011.1 |
| 20260905121058 | 70 | 140 | 0.0 | 0.0 | 0.00 | 0.03 | 0.01 | 92 | 1011.1 |
| 20260905120959 | 70 | 140 | 0.0 | 0.0 | 0.00 | 0.03 | 0.01 | 92 | 1011.1 |
| 20260905120857 | 70 | 140 | 0.0 | 0.0 | 0.00 | 0.03 | 0.01 | 92 | 1011.1 |
| 20260905120758 | 70 | 140 | 0.0 | 0.0 | 0.00 | 0.03 | 0.01 | 92 | 1011.1 |
| 20260905120659 | 70 | 140 | 0.0 | 0.0 | 0.00 | 0.03 | 0.01 | 92 | 1011.1 |
| 20260905120558 | 70 | 140 | 0.0 | 0.0 | 0.00 | 0.03 | 0.01 | 92 | 1011.1 |
| 20260905120459 | 70 | 140 | 0.0 | 0.0 | 0.00 | 0.03 | 0.01 | 92 | 1011.2 |
| 20260905120358 | 70 | 140 | 0.0 | 0.0 | 0.00 | 0.03 | 0.01 | 92 | 1011.1 |
| 20260905120257 | 70 | 140 | 0.0 | 0.0 | 0.00 | 0.03 | 0.01 | 92 | 1011.1 |
| 20260905120159 | 70 | 140 | 0.0 | 0.0 | 0.00 | 0.03 | 0.01 | 93 | 1011.2 |
| 20260905120058 | 70 | 140 | 0.0 | 0.0 | 0.00 | 0.03 | 0.01 | 93 | 1011.2 |
| 20260905115959 | 70 | 140 | 0.0 | 0.0 | 0.00 | 0.03 | 0.01 | 93 | 1011.2 |
| 20260905115858 | 70 | 140 | 0.0 | 0.0 | 0.00 | 0.03 | 0.01 | 92 | 1011.2 |
| 20260905115759 | 70 | 140 | 0.0 | 0.0 | 0.00 | 0.03 | 0.01 | 93 | 1011.2 |
| 20260905115659 | 70 | 140 | 0.0 | 0.0 | 0.00 | 0.03 | 0.01 | 93 | 1011.2 |
| 20260905115558 | 70 | 140 | 0.0 | 0.0 | 0.00 | 0.03 | 0.01 | 93 | 1011.2 |
| 20260905115459 | 70 | 140 | 0.0 | 0.0 | 0.00 | 0.03 | 0.01 | 93 | 1011.1 |
| 20260905115358 | 70 | 140 | 0.0 | 0.0 | 0.00 | 0.03 | 0.01 | 94 | 1011.1 |
| 20260905115257 | 70 | 140 | 0.0 | 0.0 | 0.00 | 0.03 | 0.01 | 94 | 1011.1 |
| 20260905115159 | 70 | 140 | 0.0 | 0.0 | 0.00 | 0.03 | 0.01 | 94 | 1011.1 |
| 20260905115059 | 70 | 140 | 0.0 | 0.0 | 0.00 | 0.03 | 0.01 | 94 | 1011.1 |
| 20260905114958 | 70 | 140 | 0.0 | 0.0 | 0.00 | 0.03 | 0.01 | 94 | 1011.0 |
| 20260905114859 | 70 | 140 | 0.0 | 0.0 | 0.00 | 0.03 | 0.01 | 93 | 1011.0 |
| 20260905114757 | 70 | 140 | 0.0 | 0.0 | 0.00 | 0.03 | 0.01 | 93 | 1011.0 |
| 20260905114657 | 70 | 140 | 0.0 | 0.0 | 0.00 | 0.03 | 0.01 | 93 | 1011.1 |
| 20260905114559 | 70 | 140 | 0.0 | 0.0 | 0.00 | 0.03 | 0.01 | 93 | 1011.1 |
| 20260905114500 | 70 | 140 | 0.0 | 0.0 | 0.00 | 0.03 | 0.01 | 93 | 1011.0 |
| 20260905114358 | 70 | 140 | 0.0 | 0.0 | 0.00 | 0.03 | 0.01 | 93 | 1011.1 |
| 20260905114258 | 70 | 140 | 0.0 | 0.0 | 0.00 | 0.03 | 0.01 | 94 | 1011.1 |
| 20260905114158 | 70 | 140 | 0.0 | 0.0 | 0.00 | 0.03 | 0.01 | 94 | 1011.0 |
| 20260905114059 | 70 | 140 | 0.0 | 0.0 | 0.00 | 0.03 | 0.01 | 93 | 1011.0 |
| 20260905114000 | 70 | 140 | 0.0 | 0.0 | 0.00 | 0.03 | 0.01 | 93 | 1011.0 |
| 20260905113859 | 70 | 140 | 0.0 | 0.0 | 0.00 | 0.03 | 0.01 | 93 | 1011.0 |
| 20260905113759 | 69 | 140 | 0.0 | 0.0 | 0.00 | 0.03 | 0.01 | 93 | 1011.0 |
| 20260905113700 | 69 | 140 | 0.0 | 0.0 | 0.00 | 0.03 | 0.01 | 93 | 1010.9 |
| 20260905113558 | 69 | 140 | 0.0 | 0.0 | 0.00 | 0.03 | 0.01 | 93 | 1010.9 |
| 20260905113500 | 69 | 140 | 0.0 | 1.0 | 0.00 | 0.03 | 0.01 | 93 | 1010.9 |
| 20260905113358 | 69 | 140 | 0.0 | 1.0 | 0.00 | 0.03 | 0.01 | 93 | 1010.9 |
| 20260905113257 | 69 | 140 | 0.0 | 1.0 | 0.00 | 0.03 | 0.01 | 93 | 1010.9 |
| 20260905113157 | 69 | 140 | 0.0 | 1.0 | 0.00 | 0.03 | 0.01 | 94 | 1010.9 |
| 20260905113058 | 69 | 140 | 0.0 | 1.0 | 0.00 | 0.03 | 0.01 | 94 | 1010.8 |
| 20260905113000 | 69 | 140 | 0.0 | 1.0 | 0.00 | 0.03 | 0.01 | 94 | 1010.8 |
| 20260905112858 | 69 | 140 | 0.0 | 1.0 | 0.00 | 0.03 | 0.01 | 94 | 1010.7 |
| 20260905112757 | 69 | 140 | 0.0 | 1.0 | 0.00 | 0.03 | 0.01 | 94 | 1010.7 |
| 20260905112658 | 69 | 140 | 0.0 | 1.0 | 0.00 | 0.03 | 0.01 | 94 | 1010.7 |
| 20260905112557 | 69 | 140 | 0.0 | 1.0 | 0.00 | 0.03 | 0.01 | 93 | 1010.7 |
| 20260905112459 | 69 | 140 | 0.0 | 1.0 | 0.00 | 0.03 | 0.01 | 93 | 1010.7 |
| 20260905112358 | 69 | 140 | 0.0 | 1.0 | 0.00 | 0.03 | 0.01 | 93 | 1010.8 |
| 20260905112257 | 69 | 140 | 0.0 | 0.0 | 0.00 | 0.03 | 0.01 | 93 | 1010.8 |
| 20260905112158 | 69 | 140 | 0.0 | 0.0 | 0.00 | 0.03 | 0.01 | 93 | 1010.8 |
| 20260905112058 | 69 | 140 | 0.0 | 0.0 | 0.00 | 0.03 | 0.01 | 93 | 1010.8 |
| 20260905111959 | 69 | 140 | 0.0 | 0.0 | 0.00 | 0.03 | 0.01 | 93 | 1010.8 |
| 20260905111858 | 69 | 140 | 0.0 | 0.0 | 0.00 | 0.03 | 0.01 | 92 | 1010.8 |
| 20260905111558 | 69 | 140 | 0.0 | 0.0 | 0.00 | 0.03 | 0.01 | 92 | 1010.8 |
| 20260905111458 | 69 | 140 | 0.0 | 0.0 | 0.00 | 0.03 | 0.01 | 92 | 1010.7 |
| 20260905111358 | 69 | 140 | 0.0 | 0.0 | 0.00 | 0.03 | 0.01 | 92 | 1010.7 |
| 20260905111258 | 69 | 140 | 0.0 | 0.0 | 0.00 | 0.03 | 0.01 | 92 | 1010.7 |
| 20260905111158 | 69 | 140 | 0.0 | 2.0 | 0.00 | 0.03 | 0.01 | 92 | 1010.8 |
| 20260905111057 | 69 | 140 | 0.0 | 3.0 | 0.00 | 0.03 | 0.01 | 92 | 1010.8 |
| 20260905110959 | 69 | 140 | 0.0 | 3.0 | 0.00 | 0.03 | 0.01 | 92 | 1010.8 |
| 20260905110859 | 69 | 140 | 0.0 | 3.0 | 0.00 | 0.03 | 0.01 | 92 | 1010.7 |
| 20260905110759 | 69 | 140 | 0.0 | 3.0 | 0.00 | 0.03 | 0.01 | 92 | 1010.7 |
| 20260905110658 | 69 | 140 | 0.0 | 3.0 | 0.00 | 0.03 | 0.01 | 92 | 1010.7 |
| 20260905110558 | 69 | 140 | 0.0 | 3.0 | 0.00 | 0.03 | 0.01 | 92 | 1010.7 |
| 20260905110459 | 69 | 140 | 0.0 | 3.0 | 0.00 | 0.03 | 0.01 | 92 | 1010.7 |
| 20260905110358 | 69 | 140 | 0.0 | 3.0 | 0.00 | 0.03 | 0.01 | 92 | 1010.7 |
| 20260905110158 | 69 | 140 | 2.0 | 3.0 | 0.00 | 0.03 | 0.01 | 92 | 1010.7 |
| 20260905110057 | 69 | 90 | 0.0 | 0.0 | 0.00 | 0.03 | 0.01 | 93 | 1010.7 |
| 20260905105959 | 69 | 90 | 0.0 | 0.0 | 0.00 | 0.03 | 0.01 | 93 | 1010.7 |
| 20260905105857 | 69 | 90 | 0.0 | 0.0 | 0.00 | 0.03 | 0.01 | 93 | 1010.7 |
| 20260905105758 | 69 | 90 | 0.0 | 0.0 | 0.00 | 0.03 | 0.01 | 92 | 1010.7 |
| 20260905105657 | 69 | 90 | 0.0 | 0.0 | 0.00 | 0.03 | 0.01 | 92 | 1010.7 |
| 20260905105557 | 69 | 90 | 0.0 | 0.0 | 0.00 | 0.03 | 0.01 | 92 | 1010.7 |
| 20260905105357 | 70 | 90 | 0.0 | 0.0 | 0.00 | 0.03 | 0.01 | 92 | 1010.8 |
| 20260905105257 | 70 | 90 | 0.0 | 0.0 | 0.00 | 0.03 | 0.01 | 92 | 1010.8 |
| 20260905105157 | 70 | 90 | 0.0 | 0.0 | 0.00 | 0.03 | 0.01 | 92 | 1010.7 |
| 20260905105057 | 70 | 90 | 0.0 | 0.0 | 0.00 | 0.03 | 0.01 | 92 | 1010.7 |
| 20260905104958 | 70 | 90 | 0.0 | 0.0 | 0.01 | 0.03 | 0.01 | 93 | 1010.6 |
| 20260905104858 | 70 | 90 | 0.0 | 0.0 | 0.01 | 0.03 | 0.01 | 92 | 1010.7 |
| 20260905104657 | 70 | 90 | 0.0 | 0.0 | 0.01 | 0.03 | 0.01 | 92 | 1010.6 |
| 20260905104557 | 70 | 90 | 0.0 | 0.0 | 0.01 | 0.03 | 0.01 | 92 | 1010.6 |
| 20260905104459 | 70 | 90 | 0.0 | 0.0 | 0.01 | 0.03 | 0.01 | 92 | 1010.6 |
| 20260905104357 | 70 | 90 | 0.0 | 0.0 | 0.01 | 0.03 | 0.01 | 92 | 1010.5 |
| 20260905104158 | 70 | 90 | 0.0 | 0.0 | 0.01 | 0.03 | 0.01 | 92 | 1010.4 |
| 20260905104058 | 70 | 90 | 0.0 | 0.0 | 0.01 | 0.03 | 0.01 | 92 | 1010.4 |
| 20260905103958 | 70 | 90 | 0.0 | 0.0 | 0.01 | 0.03 | 0.01 | 92 | 1010.4 |
| 20260905103857 | 70 | 90 | 0.0 | 0.0 | 0.01 | 0.03 | 0.01 | 92 | 1010.3 |
| 20260905103757 | 70 | 90 | 0.0 | 0.0 | 0.01 | 0.03 | 0.01 | 92 | 1010.4 |
| 20260905103658 | 70 | 90 | 0.0 | 0.0 | 0.01 | 0.03 | 0.01 | 92 | 1010.4 |
| 20260905103500 | 70 | 90 | 0.0 | 0.0 | 0.01 | 0.03 | 0.01 | 92 | 1010.3 |
| 20260905103358 | 70 | 90 | 0.0 | 0.0 | 0.01 | 0.03 | 0.01 | 91 | 1010.3 |
| 20260905103257 | 70 | 90 | 0.0 | 0.0 | 0.01 | 0.03 | 0.01 | 91 | 1010.3 |
| 20260905103157 | 70 | 90 | 0.0 | 2.0 | 0.01 | 0.03 | 0.01 | 91 | 1010.3 |
| 20260905103058 | 70 | 90 | 0.0 | 2.0 | 0.01 | 0.03 | 0.01 | 90 | 1010.3 |
| 20260905102958 | 70 | 90 | 0.0 | 2.0 | 0.01 | 0.03 | 0.01 | 90 | 1010.3 |
| 20260905102857 | 70 | 90 | 0.0 | 2.0 | 0.01 | 0.03 | 0.01 | 90 | 1010.2 |
| 20260905102758 | 70 | 90 | 0.0 | 3.0 | 0.01 | 0.03 | 0.01 | 90 | 1010.2 |
| 20260905102657 | 70 | 90 | 0.0 | 3.0 | 0.01 | 0.03 | 0.01 | 90 | 1010.2 |
| 20260905102459 | 70 | 90 | 0.0 | 3.0 | 0.01 | 0.03 | 0.01 | 89 | 1010.1 |
| 20260905102356 | 70 | 90 | 0.0 | 3.0 | 0.01 | 0.03 | 0.01 | 88 | 1010.2 |
| 20260905102258 | 70 | 90 | 1.0 | 3.0 | 0.01 | 0.03 | 0.01 | 88 | 1010.2 |
| 20260905102157 | 70 | 90 | 1.0 | 3.0 | 0.01 | 0.03 | 0.01 | 88 | 1010.2 |
| 20260905102057 | 70 | 90 | 1.0 | 3.0 | 0.01 | 0.03 | 0.01 | 88 | 1010.2 |
| 20260905101958 | 70 | 90 | 2.0 | 3.0 | 0.01 | 0.03 | 0.01 | 88 | 1010.2 |
| 20260905101857 | 70 | 90 | 0.0 | 3.0 | 0.01 | 0.03 | 0.01 | 88 | 1010.2 |
| 20260905101658 | 71 | 94 | 0.0 | 0.0 | 0.01 | 0.03 | 0.01 | 90 | 1010.2 |
| 20260905101558 | 71 | 94 | 0.0 | 0.0 | 0.01 | 0.03 | 0.01 | 90 | 1010.2 |
| 20260905101457 | 71 | 94 | 0.0 | 0.0 | 0.01 | 0.03 | 0.01 | 90 | 1010.2 |
| 20260905101257 | 71 | 94 | 0.0 | 0.0 | 0.01 | 0.03 | 0.01 | 89 | 1010.2 |
| 20260905101157 | 71 | 94 | 0.0 | 1.0 | 0.01 | 0.03 | 0.01 | 89 | 1010.2 |
| 20260905101059 | 71 | 94 | 0.0 | 1.0 | 0.01 | 0.03 | 0.01 | 88 | 1010.2 |
| 20260905100858 | 71 | 94 | 0.0 | 1.0 | 0.01 | 0.03 | 0.01 | 88 | 1010.2 |
| 20260905100757 | 71 | 94 | 0.0 | 1.0 | 0.01 | 0.03 | 0.01 | 88 | 1010.2 |
| 20260905100557 | 71 | 94 | 0.0 | 1.0 | 0.01 | 0.03 | 0.01 | 87 | 1010.2 |
| 20260905100458 | 71 | 94 | 0.0 | 1.0 | 0.01 | 0.03 | 0.01 | 87 | 1010.1 |
| 20260905100257 | 71 | 94 | 0.0 | 1.0 | 0.01 | 0.03 | 0.01 | 87 | 1010.1 |
| 20260905100056 | 71 | 94 | 0.0 | 2.0 | 0.01 | 0.03 | 0.01 | 87 | 1010.1 |
| 20260905095959 | 71 | 94 | 0.0 | 2.0 | 0.01 | 0.04 | 0.01 | 87 | 1010.0 |
| 20260905095757 | 71 | 94 | 0.0 | 2.0 | 0.01 | 0.04 | 0.01 | 86 | 1010.1 |
| 20260905095657 | 71 | 94 | 0.0 | 2.0 | 0.01 | 0.04 | 0.01 | 86 | 1010.1 |
| 20260905095556 | 71 | 94 | 0.0 | 3.0 | 0.01 | 0.04 | 0.01 | 86 | 1010.1 |
| 20260905095458 | 71 | 94 | 0.0 | 3.0 | 0.01 | 0.04 | 0.01 | 86 | 1010.1 |
| 20260905095357 | 71 | 94 | 1.0 | 3.0 | 0.01 | 0.04 | 0.01 | 86 | 1010.0 |
| 20260905095257 | 71 | 94 | 1.0 | 3.0 | 0.01 | 0.04 | 0.01 | 86 | 1010.0 |
| 20260905094858 | 71 | 94 | 0.0 | 3.0 | 0.00 | 0.03 | 0.00 | 86 | 1010.1 |
| 20260905094757 | 71 | 94 | 0.0 | 3.0 | 0.00 | 0.03 | 0.00 | 86 | 1010.0 |
| 20260905094458 | 71 | 70 | 0.0 | 3.0 | 0.00 | 0.03 | 0.00 | 86 | 1010.1 |
| 20260905094357 | 71 | 70 | 0.0 | 3.0 | 0.00 | 0.03 | 0.00 | 86 | 1010.1 |
| 20260905094257 | 71 | 70 | 0.0 | 3.0 | 0.00 | 0.03 | 0.00 | 86 | 1010.1 |
| 20260905094058 | 71 | 70 | 1.0 | 3.0 | 0.00 | 0.03 | 0.00 | 86 | 1010.1 |
| 20260905094000 | 71 | 105 | 0.0 | 3.0 | 0.00 | 0.03 | 0.00 | 86 | 1010.0 |
| 20260905093857 | 71 | 71 | 1.0 | 3.0 | 0.00 | 0.03 | 0.00 | 86 | 1010.1 |
| 20260905093657 | 71 | 72 | 0.0 | 3.0 | 0.00 | 0.03 | 0.00 | 86 | 1010.1 |
| 20260905093556 | 71 | 69 | 2.0 | 4.0 | 0.00 | 0.03 | 0.00 | 86 | 1010.1 |
| 20260905093458 | 71 | 69 | 1.0 | 4.0 | 0.00 | 0.03 | 0.00 | 86 | 1010.1 |
| 20260905093358 | 71 | 69 | 1.0 | 4.0 | 0.00 | 0.03 | 0.00 | 86 | 1010.1 |
| 20260905093257 | 71 | 69 | 1.0 | 4.0 | 0.00 | 0.03 | 0.00 | 86 | 1010.1 |
| 20260905093159 | 71 | 69 | 1.0 | 4.0 | 0.00 | 0.03 | 0.00 | 86 | 1010.1 |
| 20260905093057 | 71 | 69 | 0.0 | 4.0 | 0.00 | 0.03 | 0.00 | 86 | 1010.0 |
| 20260905092857 | 71 | 69 | 2.0 | 4.0 | 0.00 | 0.03 | 0.00 | 86 | 1010.0 |
| 20260905092757 | 71 | 69 | 1.0 | 4.0 | 0.00 | 0.03 | 0.00 | 86 | 1010.0 |
| 20260905092556 | 71 | 69 | 1.0 | 3.0 | 0.00 | 0.03 | 0.00 | 86 | 1009.9 |
| 20260905092357 | 71 | 69 | 3.0 | 3.0 | 0.00 | 0.03 | 0.00 | 86 | 1009.9 |
| 20260905092257 | 71 | 69 | 2.0 | 4.0 | 0.00 | 0.03 | 0.00 | 86 | 1009.9 |
| 20260905092156 | 71 | 69 | 0.0 | 4.0 | 0.00 | 0.03 | 0.00 | 86 | 1009.8 |
| 20260905092057 | 71 | 70 | 2.0 | 4.0 | 0.00 | 0.03 | 0.00 | 86 | 1009.8 |
| 20260905091958 | 71 | 27 | 2.0 | 4.0 | 0.00 | 0.03 | 0.00 | 87 | 1009.8 |
| 20260905091858 | 71 | 27 | 1.0 | 4.0 | 0.00 | 0.03 | 0.00 | 87 | 1009.8 |
| 20260905091757 | 71 | 13 | 2.0 | 4.0 | 0.00 | 0.03 | 0.00 | 86 | 1009.9 |
| 20260905091700 | 71 | 13 | 0.0 | 4.0 | 0.00 | 0.03 | 0.00 | 86 | 1009.9 |
| 20260905091556 | 71 | 13 | 1.0 | 4.0 | 0.00 | 0.03 | 0.00 | 86 | 1009.8 |
| 20260905091457 | 71 | 13 | 1.0 | 4.0 | 0.00 | 0.03 | 0.00 | 87 | 1009.9 |
| 20260905091356 | 71 | 13 | 2.0 | 4.0 | 0.00 | 0.03 | 0.00 | 86 | 1009.9 |
| 20260905091256 | 71 | 33 | 3.0 | 3.0 | 0.00 | 0.03 | 0.00 | 86 | 1009.8 |
| 20260905091157 | 71 | 33 | 2.0 | 3.0 | 0.00 | 0.03 | 0.00 | 86 | 1009.8 |
| 20260905091057 | 71 | 33 | 1.0 | 3.0 | 0.00 | 0.03 | 0.00 | 87 | 1009.8 |
| 20260905090958 | 71 | 33 | 1.0 | 3.0 | 0.00 | 0.03 | 0.00 | 87 | 1009.8 |
| 20260905090856 | 71 | 33 | 2.0 | 3.0 | 0.00 | 0.03 | 0.00 | 87 | 1009.8 |
| 20260905090757 | 72 | 33 | 2.0 | 3.0 | 0.00 | 0.03 | 0.00 | 87 | 1009.8 |
| 20260905090656 | 72 | 33 | 1.0 | 3.0 | 0.00 | 0.03 | 0.00 | 86 | 1009.8 |
| 20260905090557 | 72 | 33 | 1.0 | 3.0 | 0.00 | 0.03 | 0.00 | 86 | 1009.8 |
| 20260905090459 | 72 | 33 | 1.0 | 4.0 | 0.00 | 0.03 | 0.00 | 86 | 1009.8 |
| 20260905090256 | 72 | 33 | 1.0 | 4.0 | 0.00 | 0.03 | 0.00 | 87 | 1009.8 |
| 20260905090158 | 72 | 34 | 0.0 | 4.0 | 0.00 | 0.03 | 0.00 | 86 | 1009.7 |
| 20260905090057 | 72 | 30 | 1.0 | 4.0 | 0.00 | 0.03 | 0.00 | 86 | 1009.8 |
| 20260905085959 | 72 | 5 | 0.0 | 4.0 | 0.00 | 0.03 | 0.00 | 86 | 1009.8 |
| 20260905085856 | 72 | 5 | 0.0 | 4.0 | 0.00 | 0.03 | 0.00 | 86 | 1009.8 |
| 20260905085657 | 72 | 5 | 0.0 | 4.0 | 0.00 | 0.03 | 0.00 | 86 | 1009.8 |
| 20260905085557 | 72 | 5 | 0.0 | 4.0 | 0.00 | 0.03 | 0.00 | 86 | 1009.8 |
| 20260905085459 | 71 | 23 | 3.0 | 3.0 | 0.00 | 0.03 | 0.00 | 87 | 1009.8 |
| 20260905085358 | 71 | 52 | 0.0 | 2.0 | 0.00 | 0.03 | 0.00 | 87 | 1009.8 |
| 20260905085257 | 71 | 52 | 0.0 | 2.0 | 0.00 | 0.03 | 0.00 | 86 | 1009.8 |
| 20260905084958 | 71 | 52 | 0.0 | 2.0 | 0.00 | 0.03 | 0.00 | 86 | 1009.8 |
| 20260905084857 | 72 | 52 | 0.0 | 2.0 | 0.00 | 0.03 | 0.00 | 86 | 1009.8 |
| 20260905084757 | 72 | 50 | 1.0 | 2.0 | 0.00 | 0.03 | 0.00 | 87 | 1009.8 |
| 20260905084657 | 72 | 42 | 0.0 | 2.0 | 0.00 | 0.03 | 0.00 | 87 | 1009.9 |
| 20260905084557 | 72 | 42 | 0.0 | 2.0 | 0.00 | 0.03 | 0.00 | 87 | 1009.8 |
| 20260905084505 | 72 | 42 | 0.0 | 2.0 | 0.00 | 0.03 | 0.00 | 87 | 1009.8 |
| 20260905084356 | 72 | 42 | 1.0 | 1.0 | 0.00 | 0.03 | 0.00 | 87 | 1009.9 |
| 20260905084257 | 72 | 42 | 0.0 | 1.0 | 0.00 | 0.03 | 0.00 | 88 | 1009.8 |
| 20260905084157 | 72 | 42 | 0.0 | 0.0 | 0.00 | 0.03 | 0.00 | 88 | 1009.8 |
| 20260905084057 | 72 | 42 | 0.0 | 0.0 | 0.00 | 0.03 | 0.00 | 88 | 1009.8 |
| 20260905083958 | 72 | 42 | 0.0 | 3.0 | 0.00 | 0.03 | 0.00 | 88 | 1009.8 |
| 20260905083856 | 72 | 42 | 0.0 | 3.0 | 0.00 | 0.03 | 0.00 | 87 | 1009.8 |
| 20260905083757 | 72 | 42 | 0.0 | 5.0 | 0.00 | 0.03 | 0.00 | 87 | 1009.8 |
| 20260905083657 | 72 | 42 | 0.0 | 5.0 | 0.00 | 0.03 | 0.00 | 86 | 1009.8 |
| 20260905083557 | 72 | 42 | 0.0 | 7.0 | 0.00 | 0.03 | 0.00 | 86 | 1009.8 |
| 20260905083357 | 72 | 42 | 0.0 | 7.0 | 0.00 | 0.03 | 0.00 | 86 | 1009.7 |
| 20260905083256 | 72 | 42 | 0.0 | 7.0 | 0.00 | 0.03 | 0.00 | 86 | 1009.8 |
| 20260905083157 | 72 | 42 | 0.0 | 7.0 | 0.00 | 0.03 | 0.00 | 85 | 1009.7 |
| 20260905083057 | 72 | 42 | 0.0 | 7.0 | 0.00 | 0.03 | 0.00 | 85 | 1009.8 |
| 20260905082959 | 72 | 42 | 1.0 | 7.0 | 0.00 | 0.03 | 0.00 | 85 | 1009.7 |
| 20260905082857 | 72 | 42 | 2.0 | 7.0 | 0.00 | 0.03 | 0.00 | 85 | 1009.7 |
| 20260905082657 | 72 | 90 | 1.0 | 7.0 | 0.00 | 0.03 | 0.00 | 85 | 1009.7 |
| 20260905082557 | 72 | 184 | 4.0 | 6.0 | 0.00 | 0.03 | 0.00 | 86 | 1009.7 |
| 20260905082459 | 72 | 32 | 2.0 | 6.0 | 0.00 | 0.03 | 0.00 | 86 | 1009.6 |
| 20260905082356 | 72 | 24 | 3.0 | 6.0 | 0.00 | 0.03 | 0.00 | 85 | 1009.7 |
| 20260905082258 | 72 | 18 | 5.0 | 6.0 | 0.00 | 0.03 | 0.00 | 85 | 1009.7 |
| 20260905082157 | 72 | 128 | 3.0 | 5.0 | 0.00 | 0.03 | 0.00 | 86 | 1009.8 |
| 20260905082058 | 72 | 35 | 3.0 | 4.0 | 0.00 | 0.03 | 0.00 | 86 | 1009.8 |
| 20260905081959 | 72 | 59 | 2.0 | 3.0 | 0.00 | 0.03 | 0.00 | 86 | 1009.9 |
| 20260905081857 | 72 | 73 | 2.0 | 3.0 | 0.00 | 0.03 | 0.00 | 86 | 1009.9 |
| 20260905081757 | 72 | 48 | 1.0 | 3.0 | 0.00 | 0.03 | 0.00 | 86 | 1009.9 |
| 20260905081557 | 72 | 48 | 1.0 | 3.0 | 0.00 | 0.03 | 0.00 | 86 | 1010.0 |
| 20260905081458 | 72 | 48 | 1.0 | 4.0 | 0.00 | 0.03 | 0.00 | 86 | 1010.0 |
| 20260905081256 | 72 | 48 | 1.0 | 4.0 | 0.00 | 0.03 | 0.00 | 86 | 1010.0 |
| 20260905081158 | 72 | 48 | 0.0 | 4.0 | 0.00 | 0.03 | 0.00 | 86 | 1010.0 |
| 20260905081057 | 72 | 48 | 1.0 | 4.0 | 0.00 | 0.03 | 0.00 | 85 | 1010.0 |
| 20260905080958 | 72 | 48 | 2.0 | 4.0 | 0.00 | 0.03 | 0.00 | 85 | 1010.0 |
| 20260905080758 | 72 | 48 | 1.0 | 5.0 | 0.00 | 0.03 | 0.00 | 86 | 1010.1 |
| 20260905080656 | 72 | 49 | 3.0 | 5.0 | 0.00 | 0.03 | 0.00 | 85 | 1010.0 |
| 20260905080259 | 72 | 11 | 4.0 | 5.0 | 0.00 | 0.03 | 0.00 | 86 | 1010.0 |
| 20260905080157 | 72 | 345 | 1.0 | 5.0 | 0.00 | 0.03 | 0.00 | 86 | 1010.0 |
| 20260905080056 | 72 | 355 | 1.0 | 5.0 | 0.00 | 0.03 | 0.00 | 86 | 1010.0 |
| 20260905075959 | 72 | 10 | 4.0 | 5.0 | 0.00 | 0.03 | 0.00 | 86 | 1010.0 |
| 20260905075857 | 72 | 5 | 1.0 | 5.0 | 0.00 | 0.03 | 0.00 | 86 | 1009.9 |
| 20260905075757 | 72 | 5 | 3.0 | 5.0 | 0.00 | 0.03 | 0.00 | 86 | 1009.9 |
| 20260905075658 | 72 | 5 | 3.0 | 5.0 | 0.00 | 0.03 | 0.00 | 86 | 1009.9 |
| 20260905075557 | 72 | 19 | 2.0 | 5.0 | 0.00 | 0.03 | 0.00 | 86 | 1009.9 |
| 20260905075458 | 72 | 12 | 2.0 | 5.0 | 0.00 | 0.03 | 0.00 | 86 | 1009.9 |
| 20260905075358 | 72 | 11 | 1.0 | 5.0 | 0.00 | 0.03 | 0.00 | 86 | 1009.9 |
| 20260905075258 | 72 | 11 | 0.0 | 5.0 | 0.00 | 0.03 | 0.00 | 86 | 1009.9 |
| 20260905075156 | 72 | 38 | 1.0 | 5.0 | 0.00 | 0.03 | 0.00 | 86 | 1010.0 |
| 20260905075058 | 72 | 38 | 1.0 | 5.0 | 0.00 | 0.03 | 0.00 | 86 | 1010.0 |
| 20260905074957 | 72 | 38 | 2.0 | 5.0 | 0.00 | 0.03 | 0.00 | 86 | 1010.0 |
| 20260905074857 | 72 | 11 | 3.0 | 4.0 | 0.00 | 0.03 | 0.00 | 86 | 1010.0 |
| 20260905074757 | 72 | 27 | 3.0 | 4.0 | 0.00 | 0.03 | 0.00 | 86 | 1010.0 |
| 20260905074657 | 72 | 27 | 2.0 | 4.0 | 0.00 | 0.03 | 0.00 | 86 | 1010.0 |
| 20260905074457 | 72 | 21 | 2.0 | 4.0 | 0.00 | 0.03 | 0.00 | 87 | 1010.0 |
| 20260905074357 | 72 | 16 | 0.0 | 4.0 | 0.00 | 0.03 | 0.00 | 87 | 1010.1 |
| 20260905074156 | 72 | 9 | 3.0 | 5.0 | 0.00 | 0.03 | 0.00 | 87 | 1010.1 |
| 20260905073958 | 72 | 38 | 1.0 | 5.0 | 0.00 | 0.03 | 0.00 | 87 | 1010.0 |
| 20260905073858 | 72 | 38 | 1.0 | 5.0 | 0.00 | 0.03 | 0.00 | 87 | 1010.1 |
| 20260905073756 | 72 | 38 | 3.0 | 5.0 | 0.00 | 0.03 | 0.00 | 87 | 1010.1 |
| 20260905073658 | 72 | 12 | 3.0 | 5.0 | 0.00 | 0.03 | 0.00 | 87 | 1010.1 |
| 20260905073557 | 72 | 5 | 2.0 | 5.0 | 0.00 | 0.03 | 0.00 | 88 | 1010.1 |
| 20260905073459 | 72 | 5 | 2.0 | 5.0 | 0.00 | 0.03 | 0.00 | 88 | 1010.0 |
| 20260905073357 | 73 | 22 | 4.0 | 5.0 | 0.00 | 0.03 | 0.00 | 88 | 1010.0 |
| 20260905073300 | 73 | 32 | 2.0 | 5.0 | 0.00 | 0.03 | 0.00 | 88 | 1010.0 |
| 20260905073058 | 73 | 29 | 1.0 | 5.0 | 0.00 | 0.03 | 0.00 | 88 | 1010.0 |
| 20260905072857 | 73 | 31 | 0.0 | 5.0 | 0.00 | 0.03 | 0.00 | 88 | 1010.0 |
| 20260905072557 | 73 | 360 | 1.0 | 5.0 | 0.00 | 0.03 | 0.00 | 89 | 1010.0 |
| 20260905072357 | 73 | 28 | 0.0 | 4.0 | 0.00 | 0.03 | 0.00 | 89 | 1010.0 |
| 20260905072257 | 73 | 28 | 0.0 | 4.0 | 0.00 | 0.03 | 0.00 | 89 | 1010.1 |
| 20260905072158 | 73 | 28 | 0.0 | 4.0 | 0.00 | 0.03 | 0.00 | 89 | 1010.0 |
| 20260905072058 | 73 | 28 | 0.0 | 4.0 | 0.00 | 0.03 | 0.00 | 89 | 1010.0 |
| 20260905071959 | 73 | 40 | 2.0 | 3.0 | 0.00 | 0.03 | 0.00 | 90 | 1010.1 |
| 20260905071857 | 73 | 28 | 2.0 | 3.0 | 0.00 | 0.03 | 0.00 | 90 | 1010.0 |
| 20260905071657 | 73 | 37 | 3.0 | 3.0 | 0.00 | 0.03 | 0.00 | 90 | 1010.1 |
| 20260905071555 | 73 | 40 | 1.0 | 3.0 | 0.00 | 0.03 | 0.00 | 90 | 1010.1 |
| 20260905071459 | 73 | 40 | 1.0 | 3.0 | 0.00 | 0.03 | 0.00 | 90 | 1010.1 |
| 20260905071357 | 73 | 40 | 0.0 | 2.0 | 0.00 | 0.03 | 0.00 | 90 | 1010.1 |
| 20260905071157 | 73 | 40 | 0.0 | 1.0 | 0.00 | 0.03 | 0.00 | 90 | 1010.1 |
| 20260905071057 | 73 | 40 | 0.0 | 0.0 | 0.00 | 0.03 | 0.00 | 90 | 1010.1 |
| 20260905070958 | 73 | 40 | 0.0 | 0.0 | 0.00 | 0.03 | 0.00 | 90 | 1010.1 |
| 20260905070757 | 73 | 40 | 0.0 | 0.0 | 0.00 | 0.03 | 0.00 | 90 | 1010.0 |
| 20260905070656 | 73 | 40 | 0.0 | 0.0 | 0.00 | 0.03 | 0.00 | 90 | 1010.0 |
| 20260905070557 | 73 | 40 | 0.0 | 0.0 | 0.00 | 0.03 | 0.00 | 90 | 1010.0 |
| 20260905070459 | 73 | 60 | 0.0 | 0.0 | 0.00 | 0.03 | 0.00 | 90 | 1010.0 |
| 20260905070257 | 73 | 60 | 0.0 | 0.0 | 0.00 | 0.03 | 0.00 | 91 | 1010.0 |
| 20260905070158 | 73 | 60 | 0.0 | 0.0 | 0.00 | 0.03 | 0.00 | 91 | 1010.0 |
| 20260905070058 | 73 | 60 | 0.0 | 0.0 | 0.00 | 0.03 | 0.00 | 91 | 1010.0 |
| 20260905065959 | 73 | 60 | 0.0 | 0.0 | 0.00 | 0.04 | 0.00 | 91 | 1010.1 |
| 20260905065857 | 73 | 61 | 0.0 | 0.0 | 0.00 | 0.04 | 0.00 | 91 | 1010.0 |
| 20260905065757 | 73 | 28 | 0.0 | 0.0 | 0.00 | 0.04 | 0.00 | 91 | 1010.0 |
| 20260905065656 | 73 | 28 | 0.0 | 0.0 | 0.00 | 0.04 | 0.00 | 91 | 1010.1 |
| 20260905065458 | 73 | 28 | 0.0 | 0.0 | 0.00 | 0.04 | 0.00 | 91 | 1010.0 |
| 20260905065356 | 73 | 28 | 0.0 | 0.0 | 0.00 | 0.04 | 0.00 | 91 | 1010.1 |
| 20260905065258 | 73 | 28 | 0.0 | 0.0 | 0.00 | 0.04 | 0.00 | 91 | 1010.1 |
| 20260905065157 | 73 | 28 | 0.0 | 0.0 | 0.00 | 0.04 | 0.00 | 92 | 1010.0 |
| 20260905065058 | 73 | 28 | 0.0 | 0.0 | 0.00 | 0.04 | 0.00 | 92 | 1010.1 |
| 20260905064857 | 73 | 28 | 0.0 | 0.0 | 0.00 | 0.04 | 0.00 | 92 | 1010.1 |
| 20260905064758 | 72 | 28 | 0.0 | 0.0 | 0.00 | 0.04 | 0.00 | 92 | 1010.1 |
| 20260905064657 | 72 | 28 | 0.0 | 0.0 | 0.00 | 0.04 | 0.00 | 93 | 1010.1 |
| 20260905064458 | 72 | 28 | 0.0 | 0.0 | 0.00 | 0.04 | 0.00 | 93 | 1010.1 |
| 20260905064357 | 72 | 28 | 0.0 | 0.0 | 0.00 | 0.04 | 0.00 | 93 | 1010.1 |
| 20260905064257 | 72 | 28 | 0.0 | 0.0 | 0.00 | 0.04 | 0.00 | 93 | 1010.2 |
| 20260905064158 | 72 | 28 | 0.0 | 0.0 | 0.00 | 0.04 | 0.00 | 93 | 1010.2 |
| 20260905064058 | 72 | 28 | 0.0 | 0.0 | 0.00 | 0.04 | 0.00 | 93 | 1010.1 |
| 20260905063958 | 72 | 28 | 0.0 | 0.0 | 0.00 | 0.04 | 0.00 | 94 | 1010.1 |
| 20260905063857 | 72 | 28 | 0.0 | 0.0 | 0.00 | 0.04 | 0.00 | 94 | 1010.1 |
| 20260905063657 | 72 | 28 | 0.0 | 0.0 | 0.00 | 0.04 | 0.00 | 95 | 1010.1 |
| 20260905063557 | 72 | 28 | 0.0 | 0.0 | 0.00 | 0.04 | 0.00 | 95 | 1010.1 |
| 20260905063458 | 72 | 28 | 0.0 | 0.0 | 0.00 | 0.04 | 0.00 | 95 | 1010.1 |
| 20260905063257 | 72 | 28 | 0.0 | 0.0 | 0.00 | 0.04 | 0.00 | 96 | 1010.1 |
| 20260905063158 | 72 | 28 | 0.0 | 0.0 | 0.00 | 0.04 | 0.00 | 96 | 1010.1 |
| 20260905063058 | 72 | 28 | 0.0 | 0.0 | 0.00 | 0.04 | 0.00 | 96 | 1010.1 |
| 20260905062958 | 72 | 28 | 0.0 | 0.0 | 0.00 | 0.04 | 0.00 | 96 | 1010.1 |
| 20260905062857 | 72 | 28 | 0.0 | 0.0 | 0.00 | 0.04 | 0.00 | 96 | 1010.1 |
| 20260905062758 | 72 | 28 | 0.0 | 0.0 | 0.00 | 0.04 | 0.00 | 97 | 1010.1 |
| 20260905062557 | 72 | 28 | 0.0 | 0.0 | 0.00 | 0.04 | 0.00 | 97 | 1010.1 |
| 20260905062356 | 72 | 28 | 0.0 | 0.0 | 0.00 | 0.04 | 0.00 | 97 | 1010.1 |
| 20260905062256 | 72 | 28 | 0.0 | 0.0 | 0.00 | 0.04 | 0.00 | 97 | 1010.0 |
| 20260905062156 | 72 | 28 | 0.0 | 0.0 | 0.00 | 0.04 | 0.00 | 97 | 1010.1 |
| 20260905062057 | 72 | 28 | 0.0 | 0.0 | 0.00 | 0.04 | 0.00 | 97 | 1010.0 |
| 20260905061959 | 72 | 28 | 0.0 | 0.0 | 0.00 | 0.04 | 0.00 | 97 | 1010.0 |
| 20260905061856 | 72 | 28 | 0.0 | 0.0 | 0.00 | 0.04 | 0.00 | 97 | 1010.1 |
| 20260905061757 | 72 | 28 | 0.0 | 0.0 | 0.00 | 0.04 | 0.00 | 97 | 1010.1 |
| 20260905061557 | 72 | 28 | 0.0 | 0.0 | 0.00 | 0.04 | 0.00 | 97 | 1010.1 |
| 20260905061459 | 72 | 28 | 0.0 | 0.0 | 0.00 | 0.04 | 0.00 | 97 | 1010.2 |
| 20260905061356 | 72 | 28 | 0.0 | 0.0 | 0.00 | 0.04 | 0.00 | 97 | 1010.2 |
| 20260905061258 | 72 | 28 | 0.0 | 0.0 | 0.00 | 0.04 | 0.00 | 97 | 1010.2 |
| 20260905061157 | 72 | 28 | 0.0 | 0.0 | 0.00 | 0.04 | 0.00 | 97 | 1010.2 |
| 20260905060958 | 72 | 28 | 0.0 | 0.0 | 0.00 | 0.04 | 0.00 | 97 | 1010.2 |
| 20260905060858 | 72 | 28 | 0.0 | 0.0 | 0.00 | 0.04 | 0.00 | 97 | 1010.2 |
| 20260905060757 | 72 | 28 | 0.0 | 0.0 | 0.00 | 0.04 | 0.00 | 97 | 1010.2 |
| 20260905060657 | 72 | 28 | 0.0 | 0.0 | 0.00 | 0.04 | 0.00 | 97 | 1010.2 |
| 20260905060556 | 72 | 28 | 0.0 | 0.0 | 0.00 | 0.04 | 0.00 | 97 | 1010.3 |
| 20260905060459 | 72 | 28 | 0.0 | 0.0 | 0.00 | 0.04 | 0.00 | 97 | 1010.2 |
| 20260905060357 | 72 | 28 | 0.0 | 0.0 | 0.00 | 0.04 | 0.00 | 97 | 1010.2 |
| 20260905060258 | 72 | 28 | 0.0 | 0.0 | 0.00 | 0.04 | 0.00 | 97 | 1010.2 |
| 20260905060157 | 72 | 28 | 0.0 | 0.0 | 0.00 | 0.04 | 0.00 | 97 | 1010.2 |
| 20260905060058 | 72 | 28 | 0.0 | 0.0 | 0.00 | 0.04 | 0.00 | 97 | 1010.2 |
| 20260905055958 | 72 | 28 | 0.0 | 0.0 | 0.00 | 0.04 | 0.00 | 97 | 1010.2 |
| 20260905055758 | 72 | 28 | 0.0 | 0.0 | 0.00 | 0.04 | 0.00 | 97 | 1010.3 |
| 20260905055557 | 72 | 28 | 0.0 | 0.0 | 0.00 | 0.04 | 0.00 | 97 | 1010.3 |
| 20260905055257 | 72 | 28 | 0.0 | 0.0 | 0.00 | 0.04 | 0.00 | 97 | 1010.2 |
| 20260905055157 | 72 | 28 | 0.0 | 0.0 | 0.00 | 0.04 | 0.00 | 97 | 1010.3 |
| 20260905055058 | 72 | 28 | 0.0 | 0.0 | 0.00 | 0.04 | 0.00 | 97 | 1010.2 |
| 20260905054958 | 72 | 28 | 0.0 | 0.0 | 0.00 | 0.04 | 0.00 | 97 | 1010.3 |
| 20260905054858 | 72 | 28 | 0.0 | 0.0 | 0.00 | 0.04 | 0.00 | 97 | 1010.3 |
| 20260905054758 | 72 | 28 | 0.0 | 0.0 | 0.00 | 0.04 | 0.00 | 97 | 1010.3 |
| 20260905054658 | 72 | 28 | 0.0 | 0.0 | 0.00 | 0.04 | 0.00 | 97 | 1010.3 |
| 20260905054558 | 72 | 28 | 0.0 | 0.0 | 0.00 | 0.04 | 0.00 | 97 | 1010.3 |
| 20260905054458 | 72 | 28 | 0.0 | 0.0 | 0.00 | 0.04 | 0.00 | 97 | 1010.4 |
| 20260905054357 | 72 | 28 | 0.0 | 0.0 | 0.00 | 0.04 | 0.00 | 97 | 1010.4 |
| 20260905054257 | 72 | 28 | 0.0 | 0.0 | 0.00 | 0.04 | 0.00 | 97 | 1010.4 |
| 20260905054056 | 72 | 28 | 0.0 | 0.0 | 0.00 | 0.04 | 0.00 | 97 | 1010.5 |
| 20260905053959 | 72 | 28 | 0.0 | 0.0 | 0.00 | 0.04 | 0.00 | 97 | 1010.5 |
| 20260905053857 | 72 | 28 | 0.0 | 0.0 | 0.00 | 0.04 | 0.00 | 97 | 1010.5 |
| 20260905053756 | 72 | 28 | 0.0 | 0.0 | 0.00 | 0.04 | 0.00 | 97 | 1010.5 |
| 20260905053458 | 72 | 28 | 0.0 | 0.0 | 0.00 | 0.04 | 0.00 | 97 | 1010.4 |
| 20260905053358 | 72 | 28 | 0.0 | 0.0 | 0.00 | 0.04 | 0.00 | 97 | 1010.4 |
| 20260905053257 | 72 | 28 | 0.0 | 0.0 | 0.00 | 0.04 | 0.00 | 97 | 1010.5 |
| 20260905053157 | 72 | 28 | 0.0 | 0.0 | 0.00 | 0.04 | 0.00 | 97 | 1010.5 |
| 20260905053057 | 72 | 28 | 0.0 | 0.0 | 0.00 | 0.04 | 0.00 | 97 | 1010.5 |
| 20260905052958 | 72 | 28 | 0.0 | 0.0 | 0.00 | 0.04 | 0.00 | 97 | 1010.5 |
| 20260905052757 | 72 | 28 | 0.0 | 0.0 | 0.00 | 0.04 | 0.00 | 97 | 1010.5 |
| 20260905052557 | 72 | 28 | 0.0 | 0.0 | 0.00 | 0.04 | 0.00 | 97 | 1010.5 |
| 20260905052458 | 72 | 28 | 0.0 | 0.0 | 0.00 | 0.04 | 0.00 | 97 | 1010.6 |
| 20260905052356 | 72 | 28 | 0.0 | 0.0 | 0.00 | 0.04 | 0.00 | 97 | 1010.6 |
| 20260905052256 | 72 | 28 | 0.0 | 0.0 | 0.00 | 0.04 | 0.00 | 97 | 1010.6 |
| 20260905052157 | 72 | 28 | 0.0 | 0.0 | 0.00 | 0.04 | 0.00 | 97 | 1010.6 |
| 20260905052058 | 72 | 28 | 0.0 | 0.0 | 0.00 | 0.04 | 0.00 | 97 | 1010.6 |
| 20260905051958 | 72 | 28 | 0.0 | 0.0 | 0.00 | 0.04 | 0.00 | 97 | 1010.6 |
| 20260905051858 | 72 | 28 | 0.0 | 0.0 | 0.00 | 0.04 | 0.00 | 97 | 1010.6 |
| 20260905051756 | 72 | 28 | 0.0 | 0.0 | 0.00 | 0.04 | 0.00 | 97 | 1010.6 |
| 20260905051658 | 72 | 28 | 0.0 | 0.0 | 0.00 | 0.04 | 0.00 | 97 | 1010.6 |
| 20260905051557 | 72 | 28 | 0.0 | 0.0 | 0.00 | 0.04 | 0.00 | 97 | 1010.6 |
| 20260905051458 | 72 | 28 | 0.0 | 0.0 | 0.00 | 0.04 | 0.00 | 97 | 1010.6 |
| 20260905051357 | 72 | 28 | 0.0 | 0.0 | 0.00 | 0.04 | 0.00 | 97 | 1010.6 |
| 20260905051257 | 72 | 28 | 0.0 | 0.0 | 0.00 | 0.04 | 0.00 | 97 | 1010.6 |
| 20260905051057 | 72 | 28 | 0.0 | 0.0 | 0.00 | 0.04 | 0.00 | 97 | 1010.6 |
| 20260905050959 | 72 | 28 | 0.0 | 0.0 | 0.00 | 0.04 | 0.00 | 97 | 1010.7 |
| 20260905050857 | 72 | 28 | 0.0 | 0.0 | 0.00 | 0.04 | 0.00 | 97 | 1010.6 |
| 20260905050556 | 72 | 28 | 0.0 | 0.0 | 0.00 | 0.04 | 0.00 | 97 | 1010.7 |
| 20260905050458 | 72 | 28 | 0.0 | 0.0 | 0.00 | 0.04 | 0.00 | 97 | 1010.7 |
| 20260905050356 | 72 | 28 | 0.0 | 0.0 | 0.00 | 0.04 | 0.00 | 97 | 1010.7 |
| 20260905050256 | 72 | 28 | 0.0 | 0.0 | 0.00 | 0.04 | 0.00 | 97 | 1010.7 |
| 20260905050156 | 72 | 28 | 0.0 | 0.0 | 0.00 | 0.04 | 0.00 | 97 | 1010.7 |
| 20260905050057 | 72 | 28 | 0.0 | 0.0 | 0.00 | 0.04 | 0.00 | 97 | 1010.7 |
| 20260905045858 | 72 | 28 | 0.0 | 0.0 | 0.00 | 0.04 | 0.00 | 97 | 1010.8 |
| 20260905045759 | 72 | 28 | 0.0 | 0.0 | 0.00 | 0.04 | 0.00 | 97 | 1010.7 |
| 20260905045658 | 72 | 28 | 0.0 | 0.0 | 0.00 | 0.04 | 0.00 | 97 | 1010.8 |
| 20260905045557 | 72 | 28 | 0.0 | 0.0 | 0.00 | 0.04 | 0.00 | 97 | 1010.8 |
| 20260905045459 | 72 | 28 | 0.0 | 0.0 | 0.00 | 0.04 | 0.00 | 97 | 1010.9 |
| 20260905045359 | 72 | 28 | 0.0 | 0.0 | 0.00 | 0.04 | 0.00 | 97 | 1010.8 |
| 20260905045257 | 72 | 28 | 0.0 | 0.0 | 0.00 | 0.04 | 0.00 | 97 | 1010.9 |
| 20260905045158 | 72 | 28 | 0.0 | 0.0 | 0.00 | 0.04 | 0.00 | 97 | 1010.9 |
| 20260905045057 | 72 | 28 | 0.0 | 0.0 | 0.00 | 0.04 | 0.00 | 97 | 1010.9 |
| 20260905044958 | 72 | 28 | 0.0 | 0.0 | 0.00 | 0.04 | 0.00 | 97 | 1010.9 |
| 20260905044859 | 72 | 28 | 0.0 | 0.0 | 0.00 | 0.04 | 0.00 | 97 | 1010.9 |
| 20260905044658 | 72 | 28 | 0.0 | 0.0 | 0.00 | 0.04 | 0.00 | 97 | 1010.9 |
| 20260905044559 | 72 | 28 | 0.0 | 0.0 | 0.00 | 0.04 | 0.00 | 97 | 1010.9 |
| 20260905044502 | 72 | 28 | 0.0 | 0.0 | 0.00 | 0.04 | 0.00 | 97 | 1010.9 |
| 20260905044257 | 72 | 28 | 0.0 | 0.0 | 0.00 | 0.04 | 0.00 | 97 | 1010.9 |
| 20260905044158 | 72 | 28 | 0.0 | 0.0 | 0.00 | 0.04 | 0.00 | 97 | 1010.9 |
| 20260905044058 | 72 | 28 | 0.0 | 0.0 | 0.00 | 0.04 | 0.00 | 97 | 1010.9 |
| 20260905044000 | 72 | 28 | 0.0 | 0.0 | 0.00 | 0.04 | 0.00 | 96 | 1010.9 |
| 20260905043858 | 72 | 28 | 0.0 | 0.0 | 0.00 | 0.04 | 0.00 | 96 | 1010.9 |
| 20260905043759 | 72 | 28 | 0.0 | 0.0 | 0.00 | 0.04 | 0.00 | 96 | 1010.9 |
| 20260905043658 | 72 | 28 | 0.0 | 0.0 | 0.00 | 0.04 | 0.00 | 96 | 1010.9 |
| 20260905043558 | 72 | 28 | 0.0 | 0.0 | 0.00 | 0.04 | 0.00 | 96 | 1010.8 |
| 20260905043459 | 72 | 28 | 0.0 | 0.0 | 0.00 | 0.04 | 0.00 | 96 | 1010.8 |
| 20260905043358 | 72 | 28 | 0.0 | 0.0 | 0.00 | 0.04 | 0.00 | 96 | 1010.9 |
| 20260905043257 | 72 | 28 | 0.0 | 0.0 | 0.00 | 0.04 | 0.00 | 96 | 1010.8 |
| 20260905043158 | 72 | 28 | 0.0 | 0.0 | 0.00 | 0.04 | 0.00 | 96 | 1010.7 |
| 20260905043059 | 72 | 28 | 0.0 | 0.0 | 0.00 | 0.04 | 0.00 | 96 | 1010.7 |
| 20260905043001 | 72 | 28 | 0.0 | 0.0 | 0.00 | 0.04 | 0.00 | 96 | 1010.7 |
| 20260905042857 | 73 | 28 | 0.0 | 0.0 | 0.00 | 0.04 | 0.00 | 96 | 1010.7 |
| 20260905042757 | 72 | 28 | 0.0 | 0.0 | 0.00 | 0.04 | 0.00 | 96 | 1010.7 |
| 20260905042658 | 72 | 28 | 0.0 | 0.0 | 0.00 | 0.04 | 0.00 | 96 | 1010.8 |
| 20260905042559 | 72 | 28 | 0.0 | 0.0 | 0.00 | 0.04 | 0.00 | 96 | 1010.7 |
| 20260905042500 | 72 | 28 | 0.0 | 0.0 | 0.00 | 0.04 | 0.00 | 96 | 1010.7 |
| 20260905042358 | 72 | 28 | 0.0 | 0.0 | 0.00 | 0.04 | 0.00 | 96 | 1010.7 |
| 20260905042259 | 72 | 28 | 0.0 | 0.0 | 0.00 | 0.04 | 0.00 | 96 | 1010.7 |
| 20260905042158 | 72 | 28 | 0.0 | 0.0 | 0.00 | 0.04 | 0.00 | 96 | 1010.7 |
| 20260905042058 | 72 | 28 | 0.0 | 0.0 | 0.00 | 0.04 | 0.00 | 96 | 1010.7 |
| 20260905041959 | 72 | 28 | 0.0 | 0.0 | 0.00 | 0.04 | 0.00 | 96 | 1010.7 |
| 20260905041859 | 72 | 28 | 0.0 | 0.0 | 0.00 | 0.04 | 0.00 | 96 | 1010.7 |
| 20260905041758 | 72 | 28 | 0.0 | 0.0 | 0.00 | 0.04 | 0.00 | 96 | 1010.8 |
| 20260905041658 | 72 | 28 | 0.0 | 0.0 | 0.00 | 0.04 | 0.00 | 96 | 1010.8 |
| 20260905041558 | 72 | 28 | 0.0 | 0.0 | 0.00 | 0.04 | 0.00 | 96 | 1010.7 |
| 20260905041500 | 72 | 28 | 0.0 | 0.0 | 0.00 | 0.04 | 0.00 | 96 | 1010.8 |
| 20260905041358 | 72 | 28 | 0.0 | 0.0 | 0.00 | 0.04 | 0.00 | 96 | 1010.8 |
| 20260905041258 | 72 | 28 | 0.0 | 0.0 | 0.00 | 0.04 | 0.00 | 96 | 1010.8 |
| 20260905041158 | 72 | 28 | 0.0 | 0.0 | 0.00 | 0.04 | 0.00 | 96 | 1010.7 |
| 20260905041058 | 72 | 28 | 0.0 | 0.0 | 0.00 | 0.04 | 0.00 | 96 | 1010.7 |
| 20260905040959 | 72 | 28 | 0.0 | 0.0 | 0.00 | 0.04 | 0.00 | 96 | 1010.7 |
| 20260905040857 | 72 | 28 | 0.0 | 0.0 | 0.00 | 0.04 | 0.00 | 96 | 1010.7 |
| 20260905040758 | 72 | 28 | 0.0 | 0.0 | 0.00 | 0.04 | 0.00 | 96 | 1010.7 |
| 20260905040658 | 72 | 28 | 0.0 | 0.0 | 0.00 | 0.04 | 0.00 | 96 | 1010.8 |
| 20260905040558 | 72 | 28 | 0.0 | 0.0 | 0.00 | 0.04 | 0.00 | 96 | 1010.8 |
| 20260905040458 | 72 | 28 | 0.0 | 0.0 | 0.00 | 0.04 | 0.00 | 96 | 1010.9 |
| 20260905040358 | 72 | 28 | 0.0 | 0.0 | 0.00 | 0.04 | 0.00 | 96 | 1010.9 |
| 20260905040258 | 72 | 28 | 0.0 | 0.0 | 0.00 | 0.04 | 0.00 | 96 | 1010.9 |
| 20260905040000 | 72 | 28 | 0.0 | 0.0 | 0.00 | 0.04 | 0.04 | 96 | 1010.9 |
| 20260905035759 | 72 | 28 | 0.0 | 0.0 | 0.00 | 0.04 | 0.04 | 96 | 1010.9 |
| 20260905035600 | 72 | 28 | 0.0 | 0.0 | 0.00 | 0.04 | 0.04 | 96 | 1010.9 |
| 20260905035358 | 72 | 28 | 0.0 | 0.0 | 0.00 | 0.04 | 0.04 | 97 | 1010.9 |
| 20260905035300 | 72 | 28 | 0.0 | 0.0 | 0.00 | 0.04 | 0.04 | 97 | 1010.9 |
| 20260905035159 | 72 | 28 | 0.0 | 0.0 | 0.00 | 0.04 | 0.04 | 97 | 1010.9 |
| 20260905035059 | 72 | 28 | 0.0 | 0.0 | 0.00 | 0.04 | 0.04 | 97 | 1010.9 |
| 20260905035000 | 72 | 28 | 0.0 | 0.0 | 0.00 | 0.04 | 0.04 | 97 | 1010.8 |
| 20260905034900 | 72 | 28 | 0.0 | 0.0 | 0.00 | 0.04 | 0.04 | 97 | 1010.9 |
| 20260905034759 | 72 | 28 | 0.0 | 0.0 | 0.00 | 0.04 | 0.04 | 97 | 1010.9 |
| 20260905034659 | 72 | 28 | 0.0 | 0.0 | 0.00 | 0.04 | 0.04 | 97 | 1010.9 |
| 20260905034600 | 72 | 28 | 0.0 | 0.0 | 0.00 | 0.04 | 0.04 | 97 | 1010.9 |
| 20260905034501 | 72 | 28 | 0.0 | 0.0 | 0.00 | 0.04 | 0.04 | 97 | 1010.8 |
| 20260905034401 | 72 | 28 | 0.0 | 0.0 | 0.00 | 0.04 | 0.04 | 97 | 1010.9 |
| 20260905034300 | 72 | 28 | 0.0 | 0.0 | 0.00 | 0.04 | 0.04 | 97 | 1010.8 |
| 20260905034200 | 72 | 28 | 0.0 | 0.0 | 0.00 | 0.04 | 0.04 | 97 | 1010.8 |
| 20260905034058 | 72 | 28 | 0.0 | 0.0 | 0.00 | 0.04 | 0.04 | 97 | 1010.8 |
| 20260905034000 | 72 | 28 | 0.0 | 0.0 | 0.00 | 0.04 | 0.04 | 97 | 1010.8 |
| 20260905033800 | 72 | 28 | 0.0 | 0.0 | 0.00 | 0.04 | 0.04 | 97 | 1010.7 |
| 20260905033659 | 72 | 28 | 0.0 | 0.0 | 0.00 | 0.04 | 0.04 | 97 | 1010.7 |
| 20260905033600 | 72 | 28 | 0.0 | 0.0 | 0.00 | 0.04 | 0.04 | 97 | 1010.7 |
| 20260905033400 | 72 | 28 | 0.0 | 0.0 | 0.00 | 0.04 | 0.04 | 97 | 1010.7 |
| 20260905033259 | 72 | 28 | 0.0 | 0.0 | 0.00 | 0.04 | 0.04 | 97 | 1010.7 |
| 20260905033159 | 72 | 28 | 0.0 | 0.0 | 0.00 | 0.04 | 0.04 | 97 | 1010.7 |
| 20260905033100 | 72 | 28 | 0.0 | 0.0 | 0.00 | 0.04 | 0.04 | 97 | 1010.7 |
| 20260905032959 | 72 | 28 | 0.0 | 0.0 | 0.00 | 0.04 | 0.04 | 97 | 1010.7 |
| 20260905032900 | 72 | 28 | 0.0 | 0.0 | 0.00 | 0.04 | 0.04 | 97 | 1010.7 |
| 20260905032758 | 72 | 28 | 0.0 | 0.0 | 0.00 | 0.04 | 0.04 | 97 | 1010.7 |
| 20260905032659 | 72 | 28 | 0.0 | 0.0 | 0.00 | 0.04 | 0.04 | 97 | 1010.7 |
| 20260905032500 | 72 | 28 | 0.0 | 0.0 | 0.00 | 0.04 | 0.04 | 97 | 1010.7 |
| 20260905032400 | 72 | 28 | 0.0 | 0.0 | 0.00 | 0.04 | 0.04 | 97 | 1010.7 |
| 20260905032259 | 72 | 28 | 0.0 | 0.0 | 0.00 | 0.04 | 0.04 | 97 | 1010.7 |
| 20260905032159 | 72 | 28 | 0.0 | 0.0 | 0.00 | 0.04 | 0.04 | 97 | 1010.6 |
| 20260905032059 | 72 | 28 | 0.0 | 0.0 | 0.00 | 0.04 | 0.04 | 97 | 1010.6 |
| 20260905032002 | 72 | 28 | 0.0 | 0.0 | 0.00 | 0.04 | 0.04 | 97 | 1010.6 |
| 20260905031859 | 72 | 28 | 0.0 | 0.0 | 0.00 | 0.04 | 0.04 | 97 | 1010.6 |
| 20260905031759 | 72 | 28 | 0.0 | 0.0 | 0.00 | 0.04 | 0.04 | 97 | 1010.6 |
| 20260905031659 | 72 | 28 | 0.0 | 0.0 | 0.00 | 0.04 | 0.04 | 97 | 1010.6 |
| 20260905031501 | 72 | 28 | 0.0 | 0.0 | 0.00 | 0.04 | 0.04 | 97 | 1010.6 |
| 20260905031400 | 72 | 28 | 0.0 | 0.0 | 0.00 | 0.04 | 0.04 | 97 | 1010.7 |
| 20260905031200 | 72 | 28 | 0.0 | 0.0 | 0.00 | 0.04 | 0.04 | 97 | 1010.7 |
| 20260905031100 | 72 | 28 | 0.0 | 0.0 | 0.00 | 0.04 | 0.04 | 97 | 1010.7 |
| 20260905031001 | 72 | 28 | 0.0 | 0.0 | 0.00 | 0.04 | 0.04 | 97 | 1010.7 |
| 20260905030859 | 72 | 28 | 0.0 | 0.0 | 0.00 | 0.04 | 0.04 | 97 | 1010.7 |
| 20260905030759 | 72 | 28 | 0.0 | 0.0 | 0.00 | 0.04 | 0.04 | 97 | 1010.7 |
| 20260905030658 | 72 | 28 | 0.0 | 0.0 | 0.00 | 0.04 | 0.04 | 97 | 1010.7 |
| 20260905030600 | 72 | 28 | 0.0 | 0.0 | 0.00 | 0.04 | 0.04 | 97 | 1010.6 |
| 20260905030501 | 72 | 28 | 0.0 | 0.0 | 0.00 | 0.04 | 0.04 | 97 | 1010.6 |
| 20260905030359 | 72 | 28 | 0.0 | 0.0 | 0.00 | 0.04 | 0.04 | 97 | 1010.6 |
| 20260905030100 | 72 | 28 | 0.0 | 0.0 | 0.00 | 0.04 | 0.04 | 97 | 1010.6 |
| 20260905030004 | 73 | 28 | 0.0 | 0.0 | 0.00 | 0.04 | 0.04 | 97 | 1010.5 |
| 20260905025900 | 73 | 28 | 0.0 | 0.0 | 0.00 | 0.04 | 0.04 | 97 | 1010.6 |
| 20260905025759 | 73 | 28 | 0.0 | 0.0 | 0.00 | 0.04 | 0.04 | 97 | 1010.6 |
| 20260905025659 | 73 | 28 | 0.0 | 0.0 | 0.00 | 0.04 | 0.04 | 97 | 1010.5 |
| 20260905025502 | 73 | 28 | 0.0 | 0.0 | 0.00 | 0.04 | 0.04 | 97 | 1010.5 |
| 20260905025359 | 73 | 28 | 0.0 | 0.0 | 0.00 | 0.04 | 0.04 | 97 | 1010.5 |
| 20260905025259 | 73 | 28 | 0.0 | 0.0 | 0.00 | 0.04 | 0.04 | 97 | 1010.5 |
| 20260905025159 | 73 | 28 | 0.0 | 0.0 | 0.00 | 0.04 | 0.04 | 97 | 1010.5 |
| 20260905025059 | 73 | 28 | 0.0 | 0.0 | 0.00 | 0.04 | 0.04 | 97 | 1010.5 |
| 20260905025003 | 73 | 28 | 0.0 | 0.0 | 0.00 | 0.04 | 0.04 | 97 | 1010.5 |
| 20260905024859 | 73 | 28 | 0.0 | 0.0 | 0.00 | 0.04 | 0.04 | 97 | 1010.5 |
| 20260905024800 | 73 | 28 | 0.0 | 0.0 | 0.00 | 0.04 | 0.04 | 97 | 1010.5 |
| 20260905024658 | 73 | 28 | 0.0 | 0.0 | 0.00 | 0.04 | 0.04 | 97 | 1010.5 |
| 20260905024558 | 73 | 28 | 0.0 | 0.0 | 0.00 | 0.04 | 0.04 | 97 | 1010.5 |
| 20260905024504 | 73 | 28 | 0.0 | 0.0 | 0.00 | 0.04 | 0.04 | 97 | 1010.5 |
| 20260905024400 | 73 | 28 | 0.0 | 0.0 | 0.00 | 0.04 | 0.04 | 97 | 1010.5 |
| 20260905024300 | 73 | 28 | 0.0 | 0.0 | 0.00 | 0.04 | 0.04 | 97 | 1010.6 |
| 20260905024159 | 73 | 28 | 0.0 | 0.0 | 0.00 | 0.04 | 0.04 | 97 | 1010.6 |
| 20260905024059 | 73 | 28 | 0.0 | 0.0 | 0.00 | 0.04 | 0.04 | 97 | 1010.5 |
| 20260905024001 | 73 | 28 | 0.0 | 0.0 | 0.00 | 0.04 | 0.04 | 97 | 1010.5 |
| 20260905023859 | 73 | 28 | 0.0 | 0.0 | 0.00 | 0.04 | 0.04 | 97 | 1010.6 |
| 20260905023759 | 73 | 28 | 0.0 | 0.0 | 0.00 | 0.04 | 0.04 | 97 | 1010.5 |
| 20260905023659 | 73 | 28 | 0.0 | 0.0 | 0.00 | 0.04 | 0.04 | 97 | 1010.5 |
| 20260905023600 | 73 | 28 | 0.0 | 0.0 | 0.00 | 0.04 | 0.04 | 97 | 1010.6 |
| 20260905023400 | 73 | 28 | 0.0 | 0.0 | 0.00 | 0.04 | 0.04 | 97 | 1010.5 |
| 20260905023259 | 73 | 28 | 0.0 | 0.0 | 0.00 | 0.04 | 0.04 | 97 | 1010.5 |
| 20260905023159 | 73 | 28 | 0.0 | 0.0 | 0.00 | 0.04 | 0.04 | 97 | 1010.5 |
| 20260905023100 | 73 | 28 | 0.0 | 0.0 | 0.00 | 0.04 | 0.04 | 97 | 1010.5 |
| 20260905022959 | 73 | 28 | 0.0 | 0.0 | 0.00 | 0.04 | 0.04 | 97 | 1010.5 |
| 20260905022801 | 73 | 28 | 0.0 | 0.0 | 0.00 | 0.04 | 0.04 | 97 | 1010.5 |
| 20260905022659 | 73 | 28 | 0.0 | 0.0 | 0.00 | 0.04 | 0.04 | 97 | 1010.4 |
| 20260905022559 | 73 | 28 | 0.0 | 0.0 | 0.00 | 0.04 | 0.04 | 97 | 1010.4 |
| 20260905022501 | 73 | 28 | 0.0 | 0.0 | 0.00 | 0.04 | 0.04 | 97 | 1010.4 |
| 20260905022359 | 73 | 28 | 0.0 | 0.0 | 0.00 | 0.04 | 0.04 | 97 | 1010.4 |
| 20260905022259 | 73 | 28 | 0.0 | 0.0 | 0.00 | 0.04 | 0.04 | 97 | 1010.4 |
| 20260905022159 | 73 | 28 | 0.0 | 0.0 | 0.00 | 0.04 | 0.04 | 97 | 1010.4 |
| 20260905022059 | 73 | 28 | 0.0 | 0.0 | 0.00 | 0.04 | 0.04 | 97 | 1010.4 |
| 20260905022004 | 73 | 28 | 0.0 | 0.0 | 0.00 | 0.04 | 0.04 | 97 | 1010.4 |
| 20260905021858 | 73 | 28 | 0.0 | 0.0 | 0.00 | 0.04 | 0.04 | 97 | 1010.4 |
| 20260905021759 | 73 | 28 | 0.0 | 0.0 | 0.00 | 0.04 | 0.04 | 97 | 1010.4 |
| 20260905021659 | 74 | 28 | 0.0 | 0.0 | 0.00 | 0.04 | 0.04 | 96 | 1010.4 |
| 20260905021559 | 74 | 28 | 0.0 | 0.0 | 0.00 | 0.04 | 0.04 | 96 | 1010.4 |
| 20260905021500 | 74 | 28 | 0.0 | 0.0 | 0.00 | 0.04 | 0.04 | 96 | 1010.3 |
| 20260905021359 | 74 | 28 | 0.0 | 0.0 | 0.00 | 0.04 | 0.04 | 96 | 1010.4 |
| 20260905021259 | 74 | 28 | 0.0 | 0.0 | 0.00 | 0.04 | 0.04 | 96 | 1010.4 |
| 20260905021003 | 74 | 28 | 0.0 | 0.0 | 0.00 | 0.04 | 0.04 | 96 | 1010.4 |
| 20260905020758 | 74 | 28 | 0.0 | 0.0 | 0.00 | 0.04 | 0.04 | 96 | 1010.4 |
| 20260905020659 | 74 | 28 | 0.0 | 0.0 | 0.00 | 0.04 | 0.04 | 96 | 1010.3 |
| 20260905020559 | 74 | 28 | 0.0 | 0.0 | 0.00 | 0.04 | 0.04 | 96 | 1010.3 |
| 20260905020500 | 74 | 28 | 0.0 | 0.0 | 0.00 | 0.04 | 0.04 | 96 | 1010.3 |
| 20260905020358 | 74 | 28 | 0.0 | 0.0 | 0.00 | 0.04 | 0.04 | 96 | 1010.3 |
| 20260905020300 | 74 | 28 | 0.0 | 0.0 | 0.00 | 0.04 | 0.04 | 96 | 1010.3 |
| 20260905020100 | 74 | 28 | 0.0 | 0.0 | 0.00 | 0.04 | 0.04 | 96 | 1010.3 |
| 20260905015900 | 74 | 28 | 0.0 | 0.0 | 0.00 | 0.05 | 0.04 | 96 | 1010.2 |
| 20260905015759 | 74 | 28 | 0.0 | 0.0 | 0.00 | 0.05 | 0.04 | 95 | 1010.3 |
| 20260905015659 | 74 | 28 | 0.0 | 0.0 | 0.00 | 0.05 | 0.04 | 95 | 1010.2 |
| 20260905015358 | 74 | 28 | 0.0 | 0.0 | 0.00 | 0.05 | 0.04 | 95 | 1010.3 |
| 20260905015258 | 74 | 28 | 0.0 | 0.0 | 0.00 | 0.05 | 0.04 | 95 | 1010.3 |
| 20260905015159 | 74 | 28 | 0.0 | 0.0 | 0.00 | 0.05 | 0.04 | 95 | 1010.3 |
| 20260905015100 | 74 | 28 | 0.0 | 0.0 | 0.00 | 0.05 | 0.04 | 95 | 1010.3 |
| 20260905015002 | 74 | 28 | 0.0 | 0.0 | 0.00 | 0.05 | 0.04 | 95 | 1010.3 |
| 20260905014900 | 74 | 28 | 0.0 | 0.0 | 0.00 | 0.05 | 0.04 | 95 | 1010.3 |
| 20260905014758 | 74 | 28 | 0.0 | 0.0 | 0.00 | 0.05 | 0.04 | 95 | 1010.3 |
| 20260905014700 | 74 | 28 | 0.0 | 0.0 | 0.00 | 0.05 | 0.04 | 95 | 1010.3 |
| 20260905014558 | 74 | 28 | 0.0 | 0.0 | 0.00 | 0.05 | 0.04 | 95 | 1010.3 |
| 20260905014502 | 75 | 28 | 0.0 | 0.0 | 0.00 | 0.05 | 0.04 | 95 | 1010.3 |
| 20260905014259 | 75 | 28 | 0.0 | 0.0 | 0.00 | 0.05 | 0.04 | 94 | 1010.3 |
| 20260905014159 | 75 | 28 | 0.0 | 0.0 | 0.00 | 0.05 | 0.04 | 94 | 1010.2 |
| 20260905014059 | 75 | 28 | 0.0 | 0.0 | 0.00 | 0.05 | 0.04 | 94 | 1010.3 |
| 20260905014001 | 75 | 28 | 0.0 | 0.0 | 0.00 | 0.05 | 0.04 | 94 | 1010.3 |
| 20260905013859 | 75 | 28 | 0.0 | 0.0 | 0.00 | 0.05 | 0.04 | 94 | 1010.2 |
| 20260905013759 | 75 | 28 | 0.0 | 0.0 | 0.00 | 0.05 | 0.04 | 94 | 1010.3 |
| 20260905013659 | 75 | 28 | 0.0 | 0.0 | 0.00 | 0.05 | 0.04 | 94 | 1010.3 |
| 20260905013501 | 75 | 28 | 0.0 | 0.0 | 0.00 | 0.05 | 0.04 | 94 | 1010.3 |
| 20260905013400 | 75 | 28 | 0.0 | 0.0 | 0.00 | 0.05 | 0.04 | 94 | 1010.2 |
| 20260905013300 | 75 | 28 | 0.0 | 0.0 | 0.00 | 0.05 | 0.04 | 94 | 1010.2 |
| 20260905013159 | 75 | 28 | 0.0 | 0.0 | 0.00 | 0.05 | 0.04 | 94 | 1010.3 |
| 20260905013059 | 75 | 28 | 0.0 | 0.0 | 0.00 | 0.05 | 0.04 | 94 | 1010.3 |
| 20260905012859 | 75 | 28 | 0.0 | 0.0 | 0.00 | 0.05 | 0.04 | 94 | 1010.3 |
| 20260905012759 | 75 | 28 | 0.0 | 0.0 | 0.00 | 0.05 | 0.04 | 94 | 1010.3 |
| 20260905012559 | 75 | 28 | 0.0 | 0.0 | 0.00 | 0.05 | 0.04 | 94 | 1010.3 |
| 20260905012500 | 75 | 28 | 0.0 | 0.0 | 0.00 | 0.05 | 0.04 | 94 | 1010.4 |
| 20260905012359 | 75 | 28 | 0.0 | 0.0 | 0.00 | 0.05 | 0.04 | 94 | 1010.4 |
| 20260905012159 | 75 | 28 | 0.0 | 0.0 | 0.00 | 0.05 | 0.04 | 94 | 1010.4 |
| 20260905012059 | 75 | 28 | 0.0 | 0.0 | 0.00 | 0.05 | 0.04 | 94 | 1010.4 |
| 20260905012001 | 75 | 28 | 0.0 | 0.0 | 0.00 | 0.05 | 0.04 | 94 | 1010.4 |
| 20260905011759 | 75 | 28 | 0.0 | 0.0 | 0.00 | 0.05 | 0.04 | 94 | 1010.4 |
| 20260905011700 | 75 | 28 | 0.0 | 0.0 | 0.00 | 0.05 | 0.04 | 93 | 1010.4 |
| 20260905011559 | 75 | 28 | 0.0 | 0.0 | 0.00 | 0.05 | 0.04 | 93 | 1010.4 |
| 20260905011501 | 75 | 28 | 0.0 | 0.0 | 0.00 | 0.05 | 0.04 | 93 | 1010.4 |
| 20260905011259 | 75 | 28 | 0.0 | 0.0 | 0.00 | 0.05 | 0.04 | 93 | 1010.4 |
| 20260905011200 | 75 | 28 | 0.0 | 0.0 | 0.00 | 0.05 | 0.04 | 93 | 1010.3 |
| 20260905011001 | 76 | 28 | 0.0 | 0.0 | 0.00 | 0.05 | 0.04 | 93 | 1010.3 |
| 20260905010858 | 76 | 28 | 0.0 | 0.0 | 0.00 | 0.05 | 0.04 | 93 | 1010.3 |
| 20260905010759 | 76 | 28 | 0.0 | 0.0 | 0.00 | 0.05 | 0.04 | 93 | 1010.3 |
| 20260905010659 | 76 | 28 | 0.0 | 0.0 | 0.00 | 0.05 | 0.04 | 93 | 1010.2 |
| 20260905010359 | 76 | 28 | 0.0 | 0.0 | 0.00 | 0.05 | 0.04 | 93 | 1010.2 |
| 20260905010259 | 76 | 28 | 0.0 | 0.0 | 0.00 | 0.05 | 0.04 | 93 | 1010.3 |
| 20260905010201 | 76 | 28 | 0.0 | 0.0 | 0.00 | 0.05 | 0.04 | 93 | 1010.2 |
| 20260905010100 | 76 | 28 | 0.0 | 0.0 | 0.00 | 0.05 | 0.04 | 93 | 1010.2 |
| 20260905010003 | 76 | 28 | 0.0 | 0.0 | 0.00 | 0.05 | 0.04 | 93 | 1010.2 |
| 20260905005859 | 76 | 28 | 0.0 | 0.0 | 0.00 | 0.05 | 0.04 | 93 | 1010.2 |
| 20260905005758 | 76 | 28 | 0.0 | 0.0 | 0.00 | 0.05 | 0.04 | 93 | 1010.2 |
| 20260905005700 | 76 | 28 | 0.0 | 0.0 | 0.00 | 0.05 | 0.04 | 93 | 1010.2 |
| 20260905005559 | 76 | 28 | 0.0 | 0.0 | 0.00 | 0.05 | 0.04 | 93 | 1010.3 |
| 20260905005503 | 76 | 28 | 0.0 | 0.0 | 0.00 | 0.05 | 0.04 | 93 | 1010.3 |
| 20260905005358 | 76 | 28 | 0.0 | 0.0 | 0.00 | 0.05 | 0.04 | 93 | 1010.3 |
| 20260905005200 | 76 | 28 | 0.0 | 0.0 | 0.00 | 0.05 | 0.04 | 93 | 1010.2 |
| 20260905005059 | 76 | 28 | 0.0 | 0.0 | 0.00 | 0.05 | 0.04 | 93 | 1010.2 |
| 20260905005001 | 76 | 28 | 0.0 | 0.0 | 0.00 | 0.05 | 0.04 | 93 | 1010.2 |
| 20260905004859 | 76 | 28 | 0.0 | 0.0 | 0.00 | 0.05 | 0.04 | 93 | 1010.2 |
| 20260905004759 | 76 | 28 | 0.0 | 0.0 | 0.00 | 0.05 | 0.04 | 93 | 1010.2 |
| 20260905004659 | 76 | 28 | 0.0 | 0.0 | 0.00 | 0.05 | 0.04 | 93 | 1010.2 |
| 20260905004600 | 76 | 28 | 0.0 | 0.0 | 0.00 | 0.05 | 0.04 | 93 | 1010.2 |
| 20260905004501 | 76 | 28 | 0.0 | 0.0 | 0.00 | 0.05 | 0.04 | 93 | 1010.2 |
| 20260905004359 | 76 | 28 | 0.0 | 0.0 | 0.00 | 0.05 | 0.04 | 93 | 1010.2 |
| 20260905004300 | 76 | 28 | 0.0 | 0.0 | 0.00 | 0.05 | 0.04 | 93 | 1010.2 |
| 20260905004159 | 76 | 28 | 0.0 | 0.0 | 0.00 | 0.05 | 0.04 | 93 | 1010.2 |
| 20260905004100 | 76 | 28 | 0.0 | 0.0 | 0.00 | 0.05 | 0.04 | 93 | 1010.2 |
| 20260905004006 | 76 | 28 | 0.0 | 0.0 | 0.00 | 0.05 | 0.04 | 93 | 1010.2 |
| 20260905003758 | 76 | 28 | 0.0 | 0.0 | 0.00 | 0.05 | 0.04 | 93 | 1010.2 |
| 20260905003600 | 76 | 28 | 0.0 | 0.0 | 0.00 | 0.05 | 0.04 | 93 | 1010.2 |
| 20260905003502 | 76 | 28 | 0.0 | 0.0 | 0.00 | 0.05 | 0.04 | 93 | 1010.2 |
| 20260905003359 | 76 | 28 | 0.0 | 0.0 | 0.00 | 0.05 | 0.04 | 93 | 1010.2 |
| 20260905003300 | 76 | 28 | 0.0 | 0.0 | 0.00 | 0.05 | 0.04 | 93 | 1010.2 |
| 20260905003159 | 76 | 28 | 0.0 | 0.0 | 0.00 | 0.05 | 0.04 | 93 | 1010.1 |
| 20260905003058 | 76 | 28 | 0.0 | 0.0 | 0.00 | 0.05 | 0.04 | 93 | 1010.1 |
| 20260905003000 | 76 | 28 | 0.0 | 0.0 | 0.00 | 0.05 | 0.04 | 93 | 1010.0 |
| 20260905002904 | 76 | 28 | 0.0 | 0.0 | 0.00 | 0.05 | 0.04 | 93 | 1010.0 |
| 20260905002759 | 76 | 28 | 0.0 | 0.0 | 0.00 | 0.05 | 0.04 | 93 | 1009.9 |
| 20260905002659 | 76 | 28 | 0.0 | 0.0 | 0.00 | 0.05 | 0.04 | 93 | 1010.0 |
| 20260905002559 | 76 | 28 | 0.0 | 0.0 | 0.00 | 0.05 | 0.04 | 93 | 1009.9 |
| 20260905002502 | 76 | 28 | 0.0 | 0.0 | 0.00 | 0.05 | 0.04 | 93 | 1009.9 |
| 20260905002258 | 76 | 28 | 0.0 | 0.0 | 0.00 | 0.05 | 0.04 | 93 | 1010.0 |
| 20260905002159 | 76 | 28 | 0.0 | 0.0 | 0.00 | 0.05 | 0.04 | 93 | 1009.9 |
| 20260905002059 | 76 | 28 | 0.0 | 0.0 | 0.00 | 0.05 | 0.04 | 92 | 1009.9 |
| 20260905002002 | 76 | 28 | 0.0 | 0.0 | 0.00 | 0.05 | 0.04 | 92 | 1009.9 |
| 20260905001859 | 76 | 28 | 0.0 | 0.0 | 0.00 | 0.05 | 0.04 | 92 | 1009.9 |
| 20260905001800 | 76 | 28 | 0.0 | 0.0 | 0.00 | 0.05 | 0.04 | 92 | 1009.9 |
| 20260905001701 | 76 | 28 | 0.0 | 0.0 | 0.00 | 0.05 | 0.04 | 92 | 1009.9 |
| 20260905001558 | 76 | 28 | 0.0 | 0.0 | 0.00 | 0.05 | 0.04 | 92 | 1009.9 |
| 20260905001502 | 76 | 28 | 0.0 | 0.0 | 0.00 | 0.05 | 0.04 | 92 | 1009.9 |
| 20260905001359 | 76 | 28 | 0.0 | 0.0 | 0.00 | 0.05 | 0.04 | 92 | 1009.9 |
| 20260905001300 | 76 | 28 | 0.0 | 0.0 | 0.00 | 0.05 | 0.04 | 92 | 1009.9 |
| 20260905001159 | 76 | 28 | 0.0 | 0.0 | 0.00 | 0.05 | 0.04 | 92 | 1009.9 |
| 20260905001100 | 76 | 28 | 0.0 | 0.0 | 0.00 | 0.05 | 0.04 | 92 | 1009.8 |
| 20260905001000 | 76 | 28 | 0.0 | 0.0 | 0.00 | 0.05 | 0.04 | 92 | 1009.8 |
| 20260905000859 | 76 | 28 | 0.0 | 0.0 | 0.00 | 0.05 | 0.04 | 91 | 1009.9 |
| 20260905000759 | 76 | 28 | 0.0 | 0.0 | 0.00 | 0.05 | 0.04 | 91 | 1009.9 |
| 20260905000659 | 76 | 28 | 0.0 | 0.0 | 0.00 | 0.05 | 0.04 | 91 | 1009.8 |
| 20260905000600 | 76 | 28 | 0.0 | 0.0 | 0.00 | 0.05 | 0.04 | 91 | 1009.9 |
| 20260905000501 | 76 | 28 | 0.0 | 0.0 | 0.00 | 0.05 | 0.04 | 91 | 1009.9 |
| 20260905000402 | 76 | 28 | 0.0 | 0.0 | 0.00 | 0.05 | 0.04 | 91 | 1009.9 |
| 20260905000259 | 76 | 28 | 0.0 | 0.0 | 0.00 | 0.05 | 0.04 | 91 | 1009.8 |
| 20260905000159 | 76 | 28 | 0.0 | 0.0 | 0.00 | 0.05 | 0.04 | 90 | 1009.9 |
| 20260905000100 | 76 | 28 | 0.0 | 0.0 | 0.00 | 0.05 | 0.04 | 90 | 1009.9 |
| 20260905000002 | 77 | 28 | 0.0 | 0.0 | 0.00 | 0.05 | 0.04 | 90 | 1009.8 |
| 20260904235858 | 77 | 28 | 0.0 | 0.0 | 0.00 | 0.06 | 0.04 | 90 | 1009.9 |
| 20260904235559 | 77 | 28 | 0.0 | 0.0 | 0.00 | 0.06 | 0.04 | 90 | 1009.9 |
| 20260904235402 | 77 | 28 | 0.0 | 0.0 | 0.00 | 0.06 | 0.04 | 90 | 1009.9 |
| 20260904235258 | 77 | 28 | 0.0 | 0.0 | 0.00 | 0.06 | 0.04 | 90 | 1009.9 |
| 20260904235000 | 77 | 28 | 0.0 | 0.0 | 0.00 | 0.06 | 0.04 | 90 | 1009.9 |
| 20260904234900 | 77 | 28 | 0.0 | 0.0 | 0.00 | 0.06 | 0.04 | 90 | 1009.9 |
| 20260904234800 | 77 | 28 | 0.0 | 0.0 | 0.00 | 0.06 | 0.04 | 90 | 1009.9 |
| 20260904234700 | 77 | 28 | 0.0 | 0.0 | 0.00 | 0.06 | 0.04 | 89 | 1009.9 |
| 20260904234359 | 77 | 28 | 0.0 | 0.0 | 0.00 | 0.06 | 0.04 | 89 | 1009.8 |
| 20260904234258 | 77 | 28 | 0.0 | 0.0 | 0.00 | 0.06 | 0.04 | 89 | 1009.8 |
| 20260904234158 | 77 | 28 | 0.0 | 0.0 | 0.00 | 0.06 | 0.04 | 89 | 1009.8 |
| 20260904234059 | 78 | 28 | 0.0 | 0.0 | 0.00 | 0.06 | 0.04 | 89 | 1009.8 |
| 20260904234001 | 78 | 28 | 0.0 | 0.0 | 0.00 | 0.06 | 0.04 | 89 | 1009.8 |
| 20260904233759 | 78 | 28 | 0.0 | 0.0 | 0.00 | 0.06 | 0.04 | 89 | 1009.8 |
| 20260904233658 | 78 | 28 | 0.0 | 0.0 | 0.00 | 0.06 | 0.04 | 88 | 1009.8 |
| 20260904233559 | 78 | 28 | 0.0 | 0.0 | 0.00 | 0.06 | 0.04 | 88 | 1009.8 |
| 20260904233502 | 78 | 28 | 0.0 | 0.0 | 0.00 | 0.06 | 0.04 | 88 | 1009.8 |
| 20260904233359 | 78 | 28 | 0.0 | 0.0 | 0.00 | 0.06 | 0.04 | 88 | 1009.8 |
| 20260904233259 | 78 | 28 | 0.0 | 0.0 | 0.00 | 0.06 | 0.04 | 88 | 1009.9 |
| 20260904233201 | 78 | 28 | 0.0 | 0.0 | 0.00 | 0.06 | 0.04 | 88 | 1009.8 |
| 20260904233100 | 78 | 28 | 0.0 | 0.0 | 0.00 | 0.06 | 0.04 | 88 | 1009.8 |
| 20260904232859 | 78 | 28 | 0.0 | 0.0 | 0.00 | 0.06 | 0.04 | 88 | 1009.9 |
| 20260904232800 | 78 | 28 | 0.0 | 0.0 | 0.00 | 0.06 | 0.04 | 88 | 1009.9 |
| 20260904232659 | 78 | 28 | 0.0 | 0.0 | 0.00 | 0.06 | 0.04 | 88 | 1009.8 |
| 20260904232558 | 78 | 28 | 0.0 | 0.0 | 0.00 | 0.06 | 0.04 | 88 | 1009.8 |
| 20260904232359 | 78 | 28 | 0.0 | 0.0 | 0.00 | 0.06 | 0.04 | 87 | 1009.8 |
| 20260904232059 | 78 | 28 | 0.0 | 0.0 | 0.00 | 0.06 | 0.04 | 88 | 1009.8 |
| 20260904232001 | 78 | 28 | 0.0 | 0.0 | 0.00 | 0.06 | 0.04 | 88 | 1009.8 |
| 20260904231859 | 78 | 28 | 0.0 | 0.0 | 0.00 | 0.06 | 0.04 | 88 | 1009.9 |
| 20260904231658 | 79 | 28 | 0.0 | 0.0 | 0.00 | 0.06 | 0.04 | 86 | 1009.9 |
| 20260904231559 | 79 | 28 | 0.0 | 0.0 | 0.00 | 0.06 | 0.04 | 86 | 1009.9 |
| 20260904231500 | 79 | 28 | 0.0 | 0.0 | 0.00 | 0.06 | 0.04 | 86 | 1009.9 |
| 20260904231359 | 79 | 28 | 0.0 | 0.0 | 0.00 | 0.06 | 0.04 | 86 | 1009.9 |
| 20260904231158 | 79 | 28 | 0.0 | 0.0 | 0.00 | 0.06 | 0.04 | 87 | 1009.9 |
| 20260904231001 | 79 | 28 | 0.0 | 0.0 | 0.00 | 0.06 | 0.04 | 86 | 1009.9 |
| 20260904230902 | 79 | 28 | 0.0 | 0.0 | 0.00 | 0.06 | 0.04 | 86 | 1009.9 |
| 20260904230759 | 79 | 28 | 0.0 | 0.0 | 0.00 | 0.06 | 0.04 | 86 | 1009.9 |
| 20260904230659 | 79 | 28 | 0.0 | 0.0 | 0.00 | 0.06 | 0.04 | 85 | 1009.9 |
| 20260904230600 | 79 | 28 | 0.0 | 0.0 | 0.00 | 0.06 | 0.04 | 86 | 1009.9 |
| 20260904230501 | 79 | 28 | 0.0 | 0.0 | 0.00 | 0.06 | 0.04 | 86 | 1009.9 |
| 20260904230400 | 79 | 28 | 0.0 | 0.0 | 0.00 | 0.06 | 0.04 | 86 | 1009.9 |
| 20260904230259 | 79 | 28 | 0.0 | 0.0 | 0.00 | 0.06 | 0.04 | 86 | 1009.8 |
| 20260904230159 | 79 | 28 | 0.0 | 0.0 | 0.00 | 0.06 | 0.04 | 86 | 1009.9 |
| 20260904230059 | 79 | 28 | 0.0 | 0.0 | 0.00 | 0.06 | 0.04 | 85 | 1009.9 |
| 20260904225959 | 79 | 28 | 0.0 | 0.0 | 0.00 | 0.06 | 0.04 | 85 | 1009.9 |
| 20260904225858 | 79 | 28 | 0.0 | 0.0 | 0.00 | 0.06 | 0.04 | 85 | 1009.9 |
| 20260904225757 | 79 | 28 | 0.0 | 0.0 | 0.00 | 0.06 | 0.04 | 84 | 1009.9 |
| 20260904225659 | 79 | 28 | 0.0 | 0.0 | 0.01 | 0.06 | 0.04 | 84 | 1009.9 |
| 20260904225558 | 79 | 28 | 0.0 | 0.0 | 0.01 | 0.06 | 0.04 | 84 | 1009.9 |
| 20260904225501 | 79 | 28 | 0.0 | 0.0 | 0.01 | 0.06 | 0.04 | 85 | 1009.9 |
| 20260904225401 | 79 | 28 | 0.0 | 0.0 | 0.01 | 0.06 | 0.04 | 85 | 1009.9 |
| 20260904225259 | 80 | 28 | 0.0 | 0.0 | 0.01 | 0.06 | 0.04 | 84 | 1009.9 |
| 20260904225059 | 80 | 28 | 0.0 | 0.0 | 0.01 | 0.06 | 0.04 | 84 | 1009.9 |
| 20260904224758 | 80 | 28 | 0.0 | 0.0 | 0.01 | 0.06 | 0.04 | 84 | 1009.9 |
| 20260904224659 | 80 | 28 | 0.0 | 0.0 | 0.01 | 0.06 | 0.04 | 85 | 1009.8 |
| 20260904224558 | 80 | 28 | 0.0 | 0.0 | 0.01 | 0.06 | 0.04 | 85 | 1009.9 |
| 20260904224358 | 80 | 28 | 0.0 | 0.0 | 0.01 | 0.06 | 0.04 | 85 | 1009.8 |
| 20260904224259 | 80 | 28 | 0.0 | 0.0 | 0.01 | 0.06 | 0.04 | 84 | 1009.8 |
| 20260904224158 | 80 | 28 | 0.0 | 0.0 | 0.01 | 0.06 | 0.04 | 85 | 1009.8 |
| 20260904224058 | 80 | 28 | 0.0 | 0.0 | 0.01 | 0.06 | 0.04 | 85 | 1009.8 |
| 20260904224000 | 80 | 28 | 0.0 | 0.0 | 0.01 | 0.06 | 0.04 | 85 | 1009.8 |
| 20260904223859 | 80 | 28 | 0.0 | 0.0 | 0.01 | 0.06 | 0.04 | 85 | 1009.8 |
| 20260904223758 | 80 | 28 | 0.0 | 0.0 | 0.01 | 0.06 | 0.04 | 85 | 1009.8 |
| 20260904223658 | 80 | 28 | 0.0 | 0.0 | 0.01 | 0.06 | 0.04 | 85 | 1009.8 |
| 20260904223459 | 80 | 28 | 0.0 | 0.0 | 0.01 | 0.06 | 0.04 | 85 | 1009.7 |
| 20260904223258 | 80 | 28 | 0.0 | 0.0 | 0.01 | 0.06 | 0.04 | 84 | 1009.8 |
| 20260904223003 | 80 | 28 | 0.0 | 0.0 | 0.01 | 0.06 | 0.04 | 84 | 1009.8 |
| 20260904222901 | 80 | 28 | 0.0 | 0.0 | 0.01 | 0.06 | 0.04 | 84 | 1009.8 |
| 20260904222759 | 80 | 28 | 0.0 | 0.0 | 0.01 | 0.06 | 0.04 | 84 | 1009.8 |
| 20260904222658 | 80 | 28 | 0.0 | 0.0 | 0.01 | 0.06 | 0.04 | 84 | 1009.8 |
| 20260904222601 | 80 | 28 | 0.0 | 0.0 | 0.01 | 0.06 | 0.04 | 84 | 1009.9 |
| 20260904222459 | 80 | 28 | 0.0 | 0.0 | 0.01 | 0.06 | 0.04 | 84 | 1009.8 |
| 20260904222402 | 80 | 28 | 0.0 | 0.0 | 0.01 | 0.06 | 0.04 | 84 | 1009.8 |
| 20260904222259 | 81 | 28 | 0.0 | 0.0 | 0.01 | 0.06 | 0.04 | 84 | 1009.8 |
| 20260904222159 | 81 | 28 | 0.0 | 0.0 | 0.01 | 0.06 | 0.04 | 84 | 1009.8 |
| 20260904222058 | 81 | 28 | 0.0 | 0.0 | 0.01 | 0.06 | 0.04 | 83 | 1009.8 |
| 20260904221959 | 81 | 28 | 0.0 | 0.0 | 0.01 | 0.06 | 0.04 | 83 | 1009.8 |
| 20260904221857 | 81 | 28 | 0.0 | 0.0 | 0.01 | 0.06 | 0.04 | 84 | 1009.8 |
| 20260904221758 | 81 | 28 | 0.0 | 0.0 | 0.01 | 0.06 | 0.04 | 84 | 1009.8 |
| 20260904221657 | 81 | 28 | 0.0 | 0.0 | 0.01 | 0.06 | 0.04 | 85 | 1009.8 |
| 20260904221559 | 81 | 28 | 0.0 | 0.0 | 0.01 | 0.06 | 0.04 | 84 | 1009.8 |
| 20260904221358 | 81 | 28 | 0.0 | 0.0 | 0.01 | 0.06 | 0.04 | 82 | 1009.8 |
| 20260904221258 | 81 | 28 | 0.0 | 0.0 | 0.01 | 0.06 | 0.04 | 82 | 1009.8 |
| 20260904221159 | 81 | 28 | 0.0 | 0.0 | 0.01 | 0.06 | 0.04 | 82 | 1009.8 |
| 20260904221059 | 81 | 28 | 0.0 | 0.0 | 0.01 | 0.06 | 0.04 | 83 | 1009.8 |
| 20260904220959 | 81 | 28 | 0.0 | 0.0 | 0.01 | 0.06 | 0.04 | 82 | 1009.8 |
| 20260904220857 | 81 | 28 | 0.0 | 0.0 | 0.01 | 0.06 | 0.04 | 82 | 1009.8 |
| 20260904220758 | 81 | 28 | 0.0 | 0.0 | 0.01 | 0.06 | 0.04 | 82 | 1009.8 |
| 20260904220658 | 82 | 28 | 0.0 | 0.0 | 0.01 | 0.06 | 0.04 | 82 | 1009.8 |
| 20260904220559 | 82 | 28 | 0.0 | 0.0 | 0.01 | 0.06 | 0.04 | 82 | 1009.8 |
| 20260904220359 | 82 | 28 | 0.0 | 0.0 | 0.01 | 0.06 | 0.04 | 80 | 1009.8 |
| 20260904220259 | 82 | 28 | 0.0 | 0.0 | 0.01 | 0.06 | 0.04 | 80 | 1009.8 |
| 20260904220201 | 82 | 28 | 0.0 | 0.0 | 0.01 | 0.06 | 0.04 | 81 | 1009.7 |
| 20260904220000 | 82 | 28 | 0.0 | 1.0 | 0.01 | 0.06 | 0.04 | 80 | 1009.8 |
| 20260904215800 | 82 | 28 | 0.0 | 1.0 | 0.01 | 0.06 | 0.04 | 80 | 1009.8 |
| 20260904215658 | 82 | 28 | 0.0 | 1.0 | 0.00 | 0.05 | 0.03 | 80 | 1009.9 |
| 20260904215559 | 82 | 28 | 0.0 | 1.0 | 0.00 | 0.05 | 0.03 | 80 | 1009.9 |
| 20260904215501 | 82 | 28 | 0.0 | 1.0 | 0.00 | 0.05 | 0.03 | 80 | 1010.0 |
| 20260904215357 | 82 | 28 | 0.0 | 1.0 | 0.00 | 0.05 | 0.03 | 80 | 1010.0 |
| 20260904215258 | 82 | 28 | 0.0 | 1.0 | 0.00 | 0.05 | 0.03 | 79 | 1010.1 |
| 20260904215204 | 82 | 28 | 0.0 | 1.0 | 0.00 | 0.05 | 0.03 | 78 | 1010.0 |
| 20260904215056 | 82 | 28 | 0.0 | 0.0 | 0.00 | 0.05 | 0.03 | 78 | 1010.1 |
| 20260904215002 | 82 | 28 | 0.0 | 1.0 | 0.00 | 0.05 | 0.03 | 78 | 1010.1 |
| 20260904214903 | 82 | 28 | 0.0 | 2.0 | 0.00 | 0.05 | 0.03 | 78 | 1010.1 |
| 20260904214759 | 83 | 28 | 0.0 | 2.0 | 0.00 | 0.05 | 0.03 | 78 | 1010.1 |
| 20260904214701 | 83 | 28 | 0.0 | 2.0 | 0.00 | 0.05 | 0.03 | 79 | 1010.1 |
| 20260904214558 | 83 | 28 | 0.0 | 2.0 | 0.00 | 0.05 | 0.03 | 80 | 1010.2 |
| 20260904214459 | 83 | 28 | 0.0 | 2.0 | 0.00 | 0.05 | 0.03 | 80 | 1010.2 |
| 20260904214258 | 83 | 28 | 0.0 | 2.0 | 0.00 | 0.05 | 0.03 | 80 | 1010.2 |
| 20260904214200 | 83 | 28 | 0.0 | 2.0 | 0.00 | 0.05 | 0.03 | 78 | 1010.3 |
| 20260904214059 | 83 | 28 | 0.0 | 2.0 | 0.00 | 0.05 | 0.03 | 80 | 1010.4 |
| 20260904213959 | 83 | 28 | 2.0 | 2.0 | 0.00 | 0.05 | 0.03 | 83 | 1010.4 |
| 20260904213858 | 83 | 28 | 0.0 | 0.0 | 0.00 | 0.05 | 0.03 | 84 | 1010.4 |
| 20260904213759 | 83 | 28 | 0.0 | 0.0 | 0.00 | 0.05 | 0.03 | 82 | 1010.4 |
| 20260904213558 | 83 | 28 | 0.0 | 1.0 | 0.00 | 0.05 | 0.03 | 79 | 1010.4 |
| 20260904213459 | 83 | 28 | 0.0 | 1.0 | 0.00 | 0.05 | 0.03 | 78 | 1010.4 |
| 20260904213359 | 83 | 28 | 0.0 | 3.0 | 0.00 | 0.05 | 0.03 | 78 | 1010.4 |
| 20260904213257 | 83 | 28 | 0.0 | 3.0 | 0.00 | 0.05 | 0.03 | 79 | 1010.4 |
| 20260904213158 | 83 | 28 | 0.0 | 3.0 | 0.00 | 0.05 | 0.03 | 78 | 1010.4 |
| 20260904213057 | 83 | 28 | 0.0 | 3.0 | 0.00 | 0.05 | 0.03 | 78 | 1010.4 |
| 20260904212959 | 83 | 28 | 0.0 | 3.0 | 0.00 | 0.05 | 0.03 | 77 | 1010.4 |
| 20260904212901 | 83 | 28 | 0.0 | 3.0 | 0.00 | 0.05 | 0.03 | 77 | 1010.4 |
| 20260904212758 | 83 | 28 | 0.0 | 3.0 | 0.00 | 0.05 | 0.03 | 76 | 1010.4 |
| 20260904212658 | 83 | 28 | 0.0 | 3.0 | 0.00 | 0.05 | 0.03 | 74 | 1010.4 |
| 20260904212559 | 83 | 28 | 0.0 | 3.0 | 0.00 | 0.05 | 0.03 | 76 | 1010.4 |
| 20260904212459 | 83 | 28 | 1.0 | 3.0 | 0.00 | 0.05 | 0.03 | 77 | 1010.5 |
| 20260904212358 | 83 | 28 | 0.0 | 3.0 | 0.00 | 0.05 | 0.03 | 78 | 1010.5 |
| 20260904212157 | 83 | 28 | 0.0 | 3.0 | 0.00 | 0.05 | 0.03 | 75 | 1010.5 |
| 20260904212058 | 83 | 28 | 1.0 | 3.0 | 0.00 | 0.05 | 0.03 | 76 | 1010.5 |
| 20260904212000 | 83 | 28 | 1.0 | 3.0 | 0.00 | 0.05 | 0.03 | 77 | 1010.5 |
| 20260904211858 | 83 | 28 | 1.0 | 3.0 | 0.00 | 0.05 | 0.03 | 77 | 1010.4 |
| 20260904211757 | 83 | 28 | 0.0 | 3.0 | 0.00 | 0.05 | 0.03 | 76 | 1010.4 |
| 20260904211657 | 83 | 28 | 3.0 | 3.0 | 0.00 | 0.05 | 0.03 | 76 | 1010.4 |
| 20260904211558 | 83 | 28 | 0.0 | 1.0 | 0.00 | 0.05 | 0.03 | 77 | 1010.4 |
| 20260904211359 | 83 | 28 | 0.0 | 1.0 | 0.00 | 0.05 | 0.03 | 78 | 1010.4 |
| 20260904211258 | 83 | 28 | 0.0 | 1.0 | 0.00 | 0.05 | 0.03 | 80 | 1010.3 |
| 20260904211058 | 83 | 28 | 0.0 | 1.0 | 0.00 | 0.05 | 0.03 | 78 | 1010.3 |
| 20260904211000 | 83 | 28 | 0.0 | 2.0 | 0.00 | 0.05 | 0.03 | 78 | 1010.2 |
| 20260904210858 | 83 | 28 | 0.0 | 4.0 | 0.00 | 0.05 | 0.03 | 78 | 1010.2 |
| 20260904210759 | 83 | 28 | 0.0 | 4.0 | 0.00 | 0.05 | 0.03 | 78 | 1010.2 |
| 20260904210658 | 83 | 28 | 0.0 | 4.0 | 0.00 | 0.05 | 0.03 | 78 | 1010.2 |
| 20260904210558 | 83 | 28 | 0.0 | 4.0 | 0.00 | 0.05 | 0.03 | 78 | 1010.2 |
| 20260904210500 | 83 | 28 | 0.0 | 4.0 | 0.00 | 0.05 | 0.03 | 77 | 1010.2 |
| 20260904210359 | 83 | 28 | 0.0 | 4.0 | 0.00 | 0.05 | 0.03 | 75 | 1010.3 |
| 20260904210258 | 83 | 28 | 0.0 | 4.0 | 0.00 | 0.05 | 0.03 | 77 | 1010.2 |
| 20260904210158 | 84 | 28 | 0.0 | 5.0 | 0.00 | 0.05 | 0.03 | 77 | 1010.2 |
| 20260904210059 | 84 | 28 | 1.0 | 5.0 | 0.00 | 0.05 | 0.03 | 77 | 1010.1 |
| 20260904210001 | 84 | 28 | 2.0 | 5.0 | 0.00 | 0.06 | 0.03 | 77 | 1010.1 |
| 20260904205857 | 84 | 29 | 0.0 | 5.0 | 0.00 | 0.06 | 0.03 | 79 | 1010.1 |
| 20260904205658 | 84 | 29 | 0.0 | 5.0 | 0.00 | 0.06 | 0.03 | 78 | 1010.2 |
| 20260904205558 | 84 | 29 | 0.0 | 5.0 | 0.00 | 0.06 | 0.03 | 78 | 1010.2 |
| 20260904205358 | 84 | 355 | 1.0 | 5.0 | 0.00 | 0.06 | 0.03 | 76 | 1010.3 |
| 20260904205258 | 84 | 355 | 3.0 | 5.0 | 0.00 | 0.06 | 0.03 | 76 | 1010.4 |
| 20260904205158 | 84 | 9 | 1.0 | 4.0 | 0.00 | 0.06 | 0.03 | 75 | 1010.4 |
| 20260904205058 | 84 | 9 | 2.0 | 4.0 | 0.00 | 0.06 | 0.03 | 76 | 1010.4 |
| 20260904204959 | 84 | 5 | 2.0 | 3.0 | 0.00 | 0.06 | 0.03 | 79 | 1010.4 |
| 20260904204858 | 84 | 5 | 0.0 | 2.0 | 0.00 | 0.06 | 0.03 | 80 | 1010.4 |
| 20260904204758 | 84 | 5 | 0.0 | 2.0 | 0.00 | 0.06 | 0.03 | 80 | 1010.4 |
| 20260904204558 | 84 | 5 | 0.0 | 3.0 | 0.00 | 0.06 | 0.03 | 77 | 1010.4 |
| 20260904204459 | 84 | 5 | 0.0 | 3.0 | 0.00 | 0.06 | 0.03 | 79 | 1010.4 |
| 20260904204357 | 84 | 5 | 0.0 | 3.0 | 0.00 | 0.06 | 0.03 | 77 | 1010.3 |
| 20260904204258 | 84 | 5 | 0.0 | 3.0 | 0.00 | 0.06 | 0.03 | 76 | 1010.4 |
| 20260904204158 | 84 | 5 | 0.0 | 3.0 | 0.00 | 0.06 | 0.03 | 77 | 1010.4 |
| 20260904204058 | 84 | 5 | 1.0 | 3.0 | 0.00 | 0.06 | 0.03 | 76 | 1010.4 |
| 20260904204002 | 84 | 5 | 0.0 | 3.0 | 0.00 | 0.06 | 0.03 | 73 | 1010.3 |
| 20260904203758 | 84 | 9 | 2.0 | 3.0 | 0.00 | 0.06 | 0.03 | 76 | 1010.5 |
| 20260904203558 | 84 | 238 | 0.0 | 3.0 | 0.00 | 0.06 | 0.03 | 77 | 1010.4 |
| 20260904203500 | 84 | 238 | 0.0 | 3.0 | 0.00 | 0.06 | 0.03 | 76 | 1010.5 |
| 20260904203358 | 84 | 245 | 1.0 | 3.0 | 0.00 | 0.06 | 0.03 | 77 | 1010.4 |
| 20260904203258 | 85 | 245 | 0.0 | 3.0 | 0.00 | 0.06 | 0.03 | 77 | 1010.4 |
| 20260904203058 | 85 | 245 | 0.0 | 3.0 | 0.00 | 0.06 | 0.03 | 75 | 1010.6 |
| 20260904202858 | 85 | 24 | 2.0 | 2.0 | 0.00 | 0.06 | 0.03 | 74 | 1010.6 |
| 20260904202758 | 85 | 24 | 1.0 | 2.0 | 0.00 | 0.06 | 0.03 | 76 | 1010.5 |
| 20260904202659 | 85 | 36 | 1.0 | 2.0 | 0.00 | 0.06 | 0.03 | 77 | 1010.5 |
| 20260904202558 | 85 | 36 | 0.0 | 2.0 | 0.00 | 0.06 | 0.03 | 76 | 1010.5 |
| 20260904202501 | 85 | 36 | 1.0 | 2.0 | 0.00 | 0.06 | 0.03 | 76 | 1010.5 |
| 20260904202359 | 84 | 36 | 0.0 | 2.0 | 0.00 | 0.06 | 0.03 | 75 | 1010.5 |
| 20260904202259 | 84 | 36 | 0.0 | 2.0 | 0.00 | 0.06 | 0.03 | 76 | 1010.5 |
| 20260904202159 | 84 | 36 | 0.0 | 2.0 | 0.00 | 0.06 | 0.03 | 76 | 1010.5 |
| 20260904202058 | 84 | 36 | 0.0 | 2.0 | 0.00 | 0.06 | 0.03 | 76 | 1010.4 |
| 20260904202000 | 84 | 36 | 1.0 | 2.0 | 0.00 | 0.06 | 0.03 | 76 | 1010.5 |
| 20260904201857 | 84 | 36 | 0.0 | 2.0 | 0.00 | 0.06 | 0.03 | 76 | 1010.5 |
| 20260904201758 | 84 | 36 | 1.0 | 2.0 | 0.00 | 0.06 | 0.03 | 77 | 1010.5 |
| 20260904201658 | 84 | 36 | 1.0 | 2.0 | 0.00 | 0.06 | 0.03 | 77 | 1010.5 |
| 20260904201557 | 84 | 36 | 2.0 | 2.0 | 0.00 | 0.06 | 0.03 | 76 | 1010.5 |
| 20260904201500 | 84 | 36 | 0.0 | 2.0 | 0.00 | 0.06 | 0.03 | 77 | 1010.5 |
| 20260904201358 | 84 | 36 | 0.0 | 3.0 | 0.00 | 0.06 | 0.03 | 77 | 1010.4 |
| 20260904201258 | 84 | 36 | 1.0 | 3.0 | 0.00 | 0.06 | 0.03 | 78 | 1010.4 |
| 20260904201058 | 84 | 36 | 0.0 | 3.0 | 0.00 | 0.06 | 0.03 | 77 | 1010.4 |
| 20260904201000 | 84 | 36 | 0.0 | 3.0 | 0.00 | 0.06 | 0.03 | 77 | 1010.4 |
| 20260904200858 | 84 | 36 | 0.0 | 4.0 | 0.00 | 0.06 | 0.03 | 76 | 1010.4 |
| 20260904200758 | 83 | 36 | 2.0 | 4.0 | 0.00 | 0.06 | 0.03 | 76 | 1010.4 |
| 20260904200658 | 83 | 36 | 1.0 | 5.0 | 0.00 | 0.06 | 0.03 | 76 | 1010.4 |
| 20260904200558 | 83 | 36 | 1.0 | 5.0 | 0.00 | 0.06 | 0.03 | 77 | 1010.4 |
| 20260904200501 | 83 | 36 | 2.0 | 5.0 | 0.00 | 0.06 | 0.03 | 78 | 1010.4 |
| 20260904200358 | 83 | 36 | 0.0 | 5.0 | 0.00 | 0.06 | 0.03 | 77 | 1010.4 |
| 20260904200259 | 83 | 36 | 0.0 | 5.0 | 0.00 | 0.06 | 0.03 | 79 | 1010.4 |
| 20260904200159 | 83 | 36 | 0.0 | 5.0 | 0.00 | 0.06 | 0.03 | 77 | 1010.4 |
| 20260904200059 | 83 | 36 | 0.0 | 5.0 | 0.00 | 0.06 | 0.03 | 78 | 1010.4 |
| 20260904195959 | 83 | 36 | 1.0 | 5.0 | 0.00 | 0.07 | 0.03 | 78 | 1010.5 |
| 20260904195858 | 83 | 54 | 1.0 | 5.0 | 0.00 | 0.07 | 0.03 | 78 | 1010.5 |
| 20260904195758 | 83 | 22 | 2.0 | 5.0 | 0.00 | 0.07 | 0.03 | 80 | 1010.5 |
| 20260904195657 | 83 | 330 | 0.0 | 3.0 | 0.00 | 0.07 | 0.03 | 79 | 1010.5 |
| 20260904195558 | 83 | 330 | 0.0 | 3.0 | 0.00 | 0.07 | 0.03 | 80 | 1010.5 |
| 20260904195500 | 83 | 330 | 0.0 | 3.0 | 0.00 | 0.07 | 0.03 | 81 | 1010.5 |
| 20260904195358 | 83 | 330 | 0.0 | 3.0 | 0.00 | 0.07 | 0.03 | 80 | 1010.5 |
| 20260904195258 | 83 | 330 | 0.0 | 3.0 | 0.00 | 0.07 | 0.03 | 79 | 1010.5 |
| 20260904195158 | 83 | 330 | 2.0 | 3.0 | 0.00 | 0.07 | 0.03 | 78 | 1010.6 |
| 20260904195058 | 83 | 323 | 0.0 | 0.0 | 0.00 | 0.07 | 0.03 | 77 | 1010.6 |
| 20260904195001 | 83 | 323 | 0.0 | 0.0 | 0.00 | 0.07 | 0.03 | 78 | 1010.5 |
| 20260904194858 | 83 | 323 | 0.0 | 0.0 | 0.00 | 0.07 | 0.03 | 78 | 1010.6 |
| 20260904194759 | 83 | 323 | 0.0 | 0.0 | 0.00 | 0.07 | 0.03 | 78 | 1010.5 |
| 20260904194658 | 83 | 323 | 0.0 | 0.0 | 0.00 | 0.07 | 0.03 | 78 | 1010.5 |
| 20260904194559 | 83 | 323 | 0.0 | 0.0 | 0.00 | 0.07 | 0.03 | 77 | 1010.5 |
| 20260904194459 | 83 | 323 | 0.0 | 0.0 | 0.00 | 0.07 | 0.03 | 76 | 1010.5 |
| 20260904194358 | 83 | 323 | 0.0 | 2.0 | 0.00 | 0.07 | 0.03 | 76 | 1010.6 |
| 20260904194258 | 83 | 323 | 0.0 | 2.0 | 0.00 | 0.07 | 0.03 | 75 | 1010.6 |
| 20260904194157 | 83 | 323 | 0.0 | 2.0 | 0.00 | 0.07 | 0.03 | 75 | 1010.6 |
| 20260904194058 | 83 | 323 | 0.0 | 2.0 | 0.00 | 0.07 | 0.03 | 76 | 1010.6 |
| 20260904194000 | 83 | 323 | 0.0 | 2.0 | 0.00 | 0.07 | 0.03 | 76 | 1010.6 |
| 20260904193857 | 83 | 323 | 0.0 | 2.0 | 0.00 | 0.07 | 0.03 | 77 | 1010.6 |
| 20260904193757 | 83 | 323 | 0.0 | 2.0 | 0.00 | 0.07 | 0.03 | 78 | 1010.6 |
| 20260904193659 | 83 | 323 | 0.0 | 2.0 | 0.00 | 0.07 | 0.03 | 78 | 1010.6 |
| 20260904193559 | 83 | 323 | 0.0 | 2.0 | 0.00 | 0.07 | 0.03 | 79 | 1010.6 |
| 20260904193500 | 83 | 323 | 1.0 | 2.0 | 0.00 | 0.07 | 0.03 | 78 | 1010.6 |
| 20260904193258 | 83 | 329 | 0.0 | 2.0 | 0.00 | 0.07 | 0.03 | 82 | 1010.7 |
| 20260904193158 | 83 | 329 | 0.0 | 2.0 | 0.00 | 0.07 | 0.03 | 78 | 1010.7 |
| 20260904193058 | 83 | 329 | 0.0 | 2.0 | 0.00 | 0.07 | 0.03 | 76 | 1010.7 |
| 20260904193000 | 83 | 329 | 0.0 | 2.0 | 0.00 | 0.07 | 0.03 | 77 | 1010.8 |
| 20260904192858 | 83 | 339 | 0.0 | 3.0 | 0.00 | 0.07 | 0.03 | 78 | 1010.8 |
| 20260904192758 | 83 | 339 | 0.0 | 3.0 | 0.00 | 0.07 | 0.03 | 77 | 1010.8 |
| 20260904192657 | 83 | 339 | 0.0 | 3.0 | 0.00 | 0.07 | 0.03 | 75 | 1010.9 |
| 20260904192558 | 83 | 339 | 0.0 | 3.0 | 0.00 | 0.07 | 0.03 | 75 | 1010.9 |
| 20260904192501 | 83 | 339 | 1.0 | 3.0 | 0.00 | 0.07 | 0.03 | 75 | 1010.9 |
| 20260904192358 | 83 | 339 | 1.0 | 3.0 | 0.00 | 0.07 | 0.03 | 75 | 1010.9 |
| 20260904192259 | 83 | 339 | 1.0 | 3.0 | 0.00 | 0.07 | 0.03 | 75 | 1010.9 |
| 20260904192200 | 83 | 339 | 1.0 | 3.0 | 0.00 | 0.07 | 0.03 | 76 | 1010.9 |
| 20260904192059 | 83 | 339 | 0.0 | 3.0 | 0.00 | 0.07 | 0.03 | 77 | 1010.9 |
| 20260904192000 | 83 | 339 | 2.0 | 3.0 | 0.00 | 0.07 | 0.03 | 76 | 1010.9 |
| 20260904191759 | 84 | 261 | 0.0 | 1.0 | 0.00 | 0.07 | 0.03 | 78 | 1010.9 |
| 20260904191658 | 84 | 261 | 0.0 | 1.0 | 0.00 | 0.07 | 0.03 | 77 | 1010.9 |
| 20260904191558 | 84 | 261 | 0.0 | 1.0 | 0.00 | 0.07 | 0.03 | 76 | 1010.9 |
| 20260904191259 | 84 | 261 | 0.0 | 2.0 | 0.00 | 0.07 | 0.03 | 76 | 1011.0 |
| 20260904191101 | 84 | 261 | 0.0 | 3.0 | 0.00 | 0.07 | 0.03 | 77 | 1011.1 |
| 20260904191001 | 84 | 261 | 0.0 | 3.0 | 0.00 | 0.07 | 0.03 | 76 | 1011.1 |
| 20260904190857 | 84 | 261 | 0.0 | 3.0 | 0.00 | 0.07 | 0.03 | 77 | 1011.2 |
| 20260904190758 | 84 | 261 | 0.0 | 3.0 | 0.01 | 0.07 | 0.03 | 78 | 1011.2 |
| 20260904190701 | 83 | 261 | 0.0 | 3.0 | 0.01 | 0.07 | 0.03 | 77 | 1011.2 |
| 20260904190559 | 83 | 261 | 1.0 | 3.0 | 0.01 | 0.07 | 0.03 | 75 | 1011.2 |
| 20260904190359 | 83 | 261 | 0.0 | 4.0 | 0.01 | 0.07 | 0.03 | 75 | 1011.3 |
| 20260904190258 | 83 | 261 | 2.0 | 4.0 | 0.01 | 0.07 | 0.03 | 75 | 1011.3 |
| 20260904190202 | 83 | 261 | 1.0 | 4.0 | 0.01 | 0.07 | 0.03 | 75 | 1011.2 |
| 20260904190058 | 83 | 261 | 3.0 | 4.0 | 0.01 | 0.07 | 0.03 | 76 | 1011.3 |
| 20260904190001 | 83 | 261 | 2.0 | 4.0 | 0.01 | 0.08 | 0.03 | 76 | 1011.3 |
| 20260904185859 | 83 | 261 | 1.0 | 4.0 | 0.01 | 0.08 | 0.03 | 76 | 1011.3 |
| 20260904185759 | 83 | 261 | 2.0 | 4.0 | 0.01 | 0.08 | 0.03 | 79 | 1011.4 |
| 20260904185659 | 83 | 309 | 0.0 | 4.0 | 0.01 | 0.08 | 0.03 | 78 | 1011.4 |
| 20260904185602 | 83 | 336 | 0.0 | 4.0 | 0.01 | 0.08 | 0.03 | 78 | 1011.5 |
| 20260904185503 | 83 | 342 | 2.0 | 4.0 | 0.01 | 0.08 | 0.03 | 78 | 1011.5 |
| 20260904185359 | 83 | 266 | 1.0 | 3.0 | 0.01 | 0.08 | 0.03 | 77 | 1011.6 |
| 20260904185259 | 83 | 265 | 0.0 | 3.0 | 0.01 | 0.08 | 0.03 | 77 | 1011.6 |
| 20260904185159 | 83 | 266 | 1.0 | 3.0 | 0.01 | 0.08 | 0.03 | 78 | 1011.6 |
| 20260904185100 | 83 | 296 | 0.0 | 3.0 | 0.01 | 0.08 | 0.03 | 78 | 1011.6 |
| 20260904185001 | 83 | 296 | 2.0 | 3.0 | 0.01 | 0.08 | 0.03 | 78 | 1011.6 |
| 20260904184859 | 83 | 296 | 1.0 | 3.0 | 0.01 | 0.08 | 0.03 | 78 | 1011.7 |
| 20260904184659 | 82 | 38 | 0.0 | 2.0 | 0.01 | 0.08 | 0.03 | 80 | 1011.7 |
| 20260904184559 | 82 | 38 | 0.0 | 2.0 | 0.01 | 0.08 | 0.03 | 81 | 1011.7 |
| 20260904184502 | 82 | 38 | 0.0 | 1.0 | 0.01 | 0.08 | 0.03 | 81 | 1011.7 |
| 20260904184400 | 82 | 38 | 0.0 | 1.0 | 0.01 | 0.08 | 0.03 | 80 | 1011.7 |
| 20260904184300 | 82 | 39 | 0.0 | 1.0 | 0.01 | 0.08 | 0.03 | 80 | 1011.7 |
| 20260904184200 | 82 | 38 | 1.0 | 1.0 | 0.01 | 0.08 | 0.03 | 80 | 1011.7 |
| 20260904184100 | 82 | 38 | 0.0 | 1.0 | 0.01 | 0.08 | 0.03 | 81 | 1011.8 |
| 20260904184003 | 82 | 38 | 0.0 | 2.0 | 0.01 | 0.08 | 0.03 | 79 | 1011.8 |
| 20260904183901 | 82 | 38 | 0.0 | 2.0 | 0.01 | 0.08 | 0.03 | 79 | 1011.8 |
| 20260904183800 | 82 | 38 | 0.0 | 2.0 | 0.01 | 0.08 | 0.03 | 81 | 1011.9 |
| 20260904183700 | 82 | 39 | 0.0 | 2.0 | 0.01 | 0.08 | 0.03 | 83 | 1011.9 |
| 20260904183559 | 82 | 38 | 0.0 | 2.0 | 0.01 | 0.08 | 0.03 | 82 | 1011.9 |
| 20260904183259 | 82 | 39 | 0.0 | 2.0 | 0.01 | 0.08 | 0.03 | 81 | 1012.0 |
| 20260904183158 | 82 | 38 | 1.0 | 2.0 | 0.01 | 0.08 | 0.03 | 80 | 1011.9 |
| 20260904183059 | 82 | 38 | 0.0 | 2.0 | 0.01 | 0.08 | 0.03 | 80 | 1012.0 |
| 20260904182859 | 82 | 38 | 0.0 | 3.0 | 0.01 | 0.08 | 0.03 | 80 | 1012.0 |
| 20260904182759 | 82 | 38 | 0.0 | 3.0 | 0.01 | 0.08 | 0.03 | 79 | 1012.0 |
| 20260904182659 | 82 | 38 | 0.0 | 3.0 | 0.01 | 0.08 | 0.03 | 80 | 1012.1 |
| 20260904182559 | 82 | 39 | 0.0 | 3.0 | 0.01 | 0.08 | 0.03 | 78 | 1012.1 |
| 20260904182503 | 82 | 38 | 0.0 | 3.0 | 0.01 | 0.08 | 0.03 | 78 | 1012.1 |
| 20260904182400 | 82 | 38 | 0.0 | 3.0 | 0.01 | 0.08 | 0.03 | 76 | 1012.1 |
| 20260904182300 | 82 | 40 | 0.0 | 3.0 | 0.01 | 0.08 | 0.03 | 78 | 1012.0 |
| 20260904182059 | 82 | 40 | 0.0 | 3.0 | 0.01 | 0.08 | 0.03 | 76 | 1012.1 |
| 20260904182000 | 82 | 5 | 0.0 | 3.0 | 0.01 | 0.08 | 0.03 | 76 | 1012.0 |
| 20260904181858 | 82 | 5 | 3.0 | 3.0 | 0.01 | 0.08 | 0.03 | 75 | 1012.1 |
| 20260904181759 | 82 | 5 | 0.0 | 3.0 | 0.01 | 0.08 | 0.03 | 75 | 1012.1 |
| 20260904181659 | 83 | 5 | 0.0 | 3.0 | 0.01 | 0.08 | 0.03 | 75 | 1012.1 |
| 20260904181501 | 83 | 5 | 2.0 | 5.0 | 0.01 | 0.08 | 0.03 | 74 | 1012.1 |
| 20260904181400 | 83 | 5 | 2.0 | 5.0 | 0.01 | 0.08 | 0.03 | 75 | 1012.1 |
| 20260904181300 | 83 | 5 | 0.0 | 5.0 | 0.01 | 0.08 | 0.03 | 75 | 1012.1 |
| 20260904181203 | 83 | 5 | 0.0 | 5.0 | 0.01 | 0.08 | 0.03 | 76 | 1012.1 |
| 20260904181004 | 83 | 5 | 0.0 | 5.0 | 0.01 | 0.08 | 0.03 | 74 | 1012.1 |
| 20260904180801 | 84 | 5 | 2.0 | 5.0 | 0.00 | 0.07 | 0.02 | 73 | 1012.1 |
| 20260904180659 | 84 | 5 | 2.0 | 5.0 | 0.00 | 0.07 | 0.02 | 73 | 1012.1 |
| 20260904180601 | 84 | 17 | 0.0 | 5.0 | 0.00 | 0.07 | 0.02 | 73 | 1012.2 |
| 20260904180501 | 84 | 9 | 2.0 | 5.0 | 0.00 | 0.07 | 0.02 | 74 | 1012.2 |
| 20260904180359 | 84 | 312 | 1.0 | 6.0 | 0.00 | 0.07 | 0.02 | 73 | 1012.2 |
| 20260904180259 | 84 | 312 | 0.0 | 6.0 | 0.00 | 0.07 | 0.02 | 72 | 1012.2 |
| 20260904180159 | 84 | 312 | 1.0 | 6.0 | 0.00 | 0.07 | 0.02 | 73 | 1012.2 |
| 20260904180100 | 84 | 312 | 1.0 | 6.0 | 0.00 | 0.07 | 0.02 | 73 | 1012.2 |
| 20260904180004 | 84 | 312 | 1.0 | 6.0 | 0.00 | 0.07 | 0.02 | 72 | 1012.2 |
| 20260904175758 | 84 | 22 | 1.0 | 8.0 | 0.00 | 0.08 | 0.02 | 75 | 1012.2 |
| 20260904175659 | 84 | 22 | 1.0 | 8.0 | 0.00 | 0.08 | 0.02 | 75 | 1012.2 |
| 20260904175600 | 84 | 15 | 2.0 | 8.0 | 0.00 | 0.08 | 0.02 | 75 | 1012.2 |
| 20260904175358 | 84 | 303 | 1.0 | 8.0 | 0.00 | 0.08 | 0.02 | 73 | 1012.2 |
| 20260904175259 | 84 | 303 | 2.0 | 8.0 | 0.00 | 0.08 | 0.02 | 73 | 1012.2 |
| 20260904175058 | 84 | 27 | 2.0 | 8.0 | 0.00 | 0.08 | 0.02 | 74 | 1012.1 |
| 20260904175000 | 84 | 13 | 4.0 | 8.0 | 0.00 | 0.08 | 0.02 | 74 | 1012.2 |
| 20260904174858 | 84 | 5 | 2.0 | 8.0 | 0.00 | 0.08 | 0.02 | 75 | 1012.2 |
| 20260904174802 | 84 | 5 | 2.0 | 5.0 | 0.00 | 0.08 | 0.02 | 74 | 1012.2 |
| 20260904174659 | 84 | 5 | 1.0 | 5.0 | 0.00 | 0.08 | 0.02 | 75 | 1012.2 |
| 20260904174558 | 84 | 13 | 2.0 | 5.0 | 0.00 | 0.08 | 0.02 | 76 | 1012.1 |
| 20260904174459 | 84 | 27 | 0.0 | 5.0 | 0.00 | 0.08 | 0.02 | 75 | 1012.2 |
| 20260904174258 | 84 | 30 | 2.0 | 5.0 | 0.00 | 0.08 | 0.02 | 73 | 1012.2 |
| 20260904174157 | 84 | 32 | 5.0 | 5.0 | 0.00 | 0.08 | 0.02 | 75 | 1012.2 |
| 20260904174059 | 84 | 12 | 3.0 | 5.0 | 0.00 | 0.08 | 0.02 | 74 | 1012.1 |
| 20260904174000 | 84 | 15 | 1.0 | 5.0 | 0.00 | 0.08 | 0.02 | 74 | 1012.1 |
| 20260904173857 | 84 | 19 | 0.0 | 5.0 | 0.00 | 0.08 | 0.02 | 74 | 1012.1 |
| 20260904173758 | 84 | 19 | 0.0 | 5.0 | 0.00 | 0.08 | 0.02 | 74 | 1012.2 |
| 20260904173658 | 84 | 19 | 0.0 | 5.0 | 0.00 | 0.08 | 0.02 | 73 | 1012.2 |
| 20260904173557 | 84 | 19 | 1.0 | 5.0 | 0.00 | 0.08 | 0.02 | 75 | 1012.2 |
| 20260904173459 | 84 | 355 | 2.0 | 5.0 | 0.00 | 0.08 | 0.02 | 74 | 1012.2 |
| 20260904173358 | 84 | 5 | 3.0 | 5.0 | 0.00 | 0.08 | 0.02 | 76 | 1012.3 |
| 20260904173258 | 83 | 360 | 4.0 | 5.0 | 0.00 | 0.08 | 0.02 | 76 | 1012.2 |
| 20260904173158 | 83 | 346 | 3.0 | 4.0 | 0.00 | 0.08 | 0.02 | 74 | 1012.2 |
| 20260904173058 | 83 | 42 | 0.0 | 4.0 | 0.00 | 0.08 | 0.02 | 74 | 1012.2 |
| 20260904172857 | 84 | 42 | 0.0 | 4.0 | 0.00 | 0.08 | 0.02 | 73 | 1012.3 |
| 20260904172758 | 84 | 42 | 0.0 | 4.0 | 0.00 | 0.08 | 0.02 | 74 | 1012.3 |
| 20260904172658 | 84 | 42 | 0.0 | 4.0 | 0.00 | 0.08 | 0.02 | 74 | 1012.4 |
| 20260904172559 | 84 | 42 | 0.0 | 6.0 | 0.00 | 0.08 | 0.02 | 75 | 1012.3 |
| 20260904172459 | 84 | 42 | 0.0 | 6.0 | 0.00 | 0.08 | 0.02 | 75 | 1012.3 |
| 20260904172359 | 83 | 42 | 0.0 | 6.0 | 0.00 | 0.08 | 0.02 | 74 | 1012.3 |
| 20260904172259 | 83 | 65 | 4.0 | 6.0 | 0.00 | 0.08 | 0.02 | 74 | 1012.3 |
| 20260904172158 | 83 | 342 | 3.0 | 6.0 | 0.00 | 0.08 | 0.02 | 74 | 1012.3 |
| 20260904172058 | 83 | 324 | 1.0 | 6.0 | 0.00 | 0.08 | 0.02 | 73 | 1012.3 |
| 20260904171959 | 83 | 322 | 1.0 | 6.0 | 0.00 | 0.08 | 0.02 | 74 | 1012.3 |
| 20260904171659 | 84 | 5 | 2.0 | 6.0 | 0.00 | 0.08 | 0.02 | 74 | 1012.3 |
| 20260904171558 | 84 | 18 | 3.0 | 5.0 | 0.00 | 0.08 | 0.02 | 73 | 1012.3 |
| 20260904171500 | 84 | 42 | 4.0 | 5.0 | 0.00 | 0.08 | 0.02 | 74 | 1012.3 |
| 20260904171357 | 84 | 355 | 0.0 | 4.0 | 0.00 | 0.08 | 0.02 | 74 | 1012.4 |
| 20260904171259 | 84 | 355 | 1.0 | 4.0 | 0.00 | 0.08 | 0.02 | 75 | 1012.4 |
| 20260904171200 | 84 | 329 | 1.0 | 2.0 | 0.00 | 0.08 | 0.02 | 74 | 1012.5 |
| 20260904171057 | 84 | 329 | 2.0 | 2.0 | 0.00 | 0.08 | 0.02 | 73 | 1012.4 |
| 20260904170958 | 84 | 329 | 0.0 | 2.0 | 0.00 | 0.08 | 0.02 | 73 | 1012.5 |
| 20260904170858 | 84 | 329 | 1.0 | 2.0 | 0.00 | 0.08 | 0.02 | 73 | 1012.5 |
| 20260904170758 | 84 | 330 | 1.0 | 2.0 | 0.00 | 0.08 | 0.02 | 74 | 1012.4 |
| 20260904170658 | 84 | 55 | 1.0 | 2.0 | 0.00 | 0.08 | 0.02 | 73 | 1012.4 |
| 20260904170558 | 84 | 55 | 0.0 | 2.0 | 0.00 | 0.08 | 0.02 | 74 | 1012.4 |
| 20260904170500 | 84 | 55 | 1.0 | 2.0 | 0.00 | 0.08 | 0.02 | 75 | 1012.4 |
| 20260904170358 | 84 | 55 | 1.0 | 2.0 | 0.00 | 0.08 | 0.02 | 77 | 1012.4 |
| 20260904170258 | 83 | 55 | 2.0 | 2.0 | 0.00 | 0.08 | 0.02 | 76 | 1012.4 |
| 20260904170158 | 83 | 265 | 0.0 | 2.0 | 0.00 | 0.08 | 0.02 | 74 | 1012.4 |
| 20260904170002 | 83 | 265 | 0.0 | 2.0 | 0.00 | 0.08 | 0.02 | 75 | 1012.4 |
| 20260904165859 | 83 | 265 | 0.0 | 3.0 | 0.00 | 0.08 | 0.02 | 74 | 1012.4 |
| 20260904165800 | 83 | 265 | 0.0 | 3.0 | 0.00 | 0.08 | 0.02 | 74 | 1012.4 |
| 20260904165500 | 84 | 36 | 0.0 | 3.0 | 0.00 | 0.08 | 0.02 | 73 | 1012.4 |
| 20260904165300 | 84 | 36 | 2.0 | 3.0 | 0.00 | 0.08 | 0.02 | 76 | 1012.4 |
| 20260904165159 | 83 | 36 | 0.0 | 3.0 | 0.00 | 0.08 | 0.02 | 75 | 1012.4 |
| 20260904165100 | 83 | 36 | 1.0 | 3.0 | 0.00 | 0.08 | 0.02 | 74 | 1012.4 |
| 20260904165001 | 83 | 38 | 1.0 | 3.0 | 0.00 | 0.08 | 0.02 | 74 | 1012.4 |
| 20260904164859 | 83 | 215 | 1.0 | 3.0 | 0.00 | 0.08 | 0.02 | 74 | 1012.5 |
| 20260904164759 | 83 | 63 | 3.0 | 3.0 | 0.00 | 0.08 | 0.02 | 75 | 1012.5 |
| 20260904164700 | 83 | 284 | 0.0 | 2.0 | 0.00 | 0.08 | 0.02 | 76 | 1012.5 |
| 20260904164501 | 83 | 284 | 0.0 | 2.0 | 0.00 | 0.08 | 0.02 | 74 | 1012.5 |
| 20260904164400 | 83 | 284 | 2.0 | 2.0 | 0.00 | 0.08 | 0.02 | 74 | 1012.4 |
| 20260904164300 | 83 | 284 | 0.0 | 2.0 | 0.00 | 0.08 | 0.02 | 75 | 1012.4 |
| 20260904164159 | 83 | 284 | 0.0 | 2.0 | 0.00 | 0.08 | 0.02 | 74 | 1012.4 |
| 20260904164100 | 83 | 284 | 0.0 | 2.0 | 0.00 | 0.08 | 0.02 | 76 | 1012.4 |
| 20260904163900 | 83 | 284 | 0.0 | 3.0 | 0.00 | 0.08 | 0.02 | 75 | 1012.4 |
| 20260904163759 | 83 | 284 | 0.0 | 3.0 | 0.00 | 0.08 | 0.02 | 76 | 1012.4 |
| 20260904163659 | 83 | 284 | 1.0 | 3.0 | 0.00 | 0.08 | 0.02 | 76 | 1012.5 |
| 20260904163600 | 83 | 284 | 0.0 | 3.0 | 0.00 | 0.08 | 0.02 | 76 | 1012.5 |
| 20260904163400 | 83 | 283 | 2.0 | 3.0 | 0.00 | 0.08 | 0.02 | 78 | 1012.6 |
| 20260904163259 | 83 | 283 | 0.0 | 3.0 | 0.00 | 0.08 | 0.02 | 78 | 1012.5 |
| 20260904163158 | 83 | 283 | 2.0 | 3.0 | 0.00 | 0.08 | 0.02 | 74 | 1012.6 |
| 20260904163100 | 83 | 285 | 0.0 | 4.0 | 0.00 | 0.08 | 0.02 | 74 | 1012.6 |
| 20260904162859 | 83 | 285 | 1.0 | 4.0 | 0.00 | 0.08 | 0.02 | 73 | 1012.6 |
| 20260904162759 | 84 | 285 | 1.0 | 4.0 | 0.00 | 0.08 | 0.02 | 73 | 1012.6 |
| 20260904162559 | 84 | 5 | 1.0 | 4.0 | 0.00 | 0.08 | 0.02 | 76 | 1012.5 |
| 20260904162500 | 84 | 10 | 1.0 | 4.0 | 0.00 | 0.08 | 0.02 | 76 | 1012.5 |
| 20260904162400 | 84 | 10 | 1.0 | 4.0 | 0.00 | 0.08 | 0.02 | 78 | 1012.5 |
| 20260904162301 | 84 | 10 | 2.0 | 4.0 | 0.00 | 0.08 | 0.02 | 79 | 1012.5 |
| 20260904162159 | 83 | 248 | 1.0 | 3.0 | 0.00 | 0.08 | 0.02 | 80 | 1012.5 |
| 20260904162104 | 83 | 244 | 0.0 | 3.0 | 0.00 | 0.08 | 0.02 | 76 | 1012.5 |
| 20260904162004 | 83 | 244 | 3.0 | 3.0 | 0.00 | 0.08 | 0.02 | 76 | 1012.5 |
| 20260904161859 | 83 | 292 | 0.0 | 3.0 | 0.00 | 0.08 | 0.02 | 77 | 1012.6 |
| 20260904161759 | 83 | 292 | 1.0 | 3.0 | 0.00 | 0.08 | 0.02 | 79 | 1012.6 |
| 20260904161659 | 83 | 294 | 1.0 | 3.0 | 0.00 | 0.08 | 0.02 | 76 | 1012.6 |
| 20260904161559 | 83 | 294 | 0.0 | 3.0 | 0.00 | 0.08 | 0.02 | 76 | 1012.6 |
| 20260904161504 | 83 | 294 | 0.0 | 3.0 | 0.00 | 0.08 | 0.02 | 76 | 1012.6 |
| 20260904161401 | 83 | 294 | 0.0 | 3.0 | 0.00 | 0.08 | 0.02 | 78 | 1012.7 |
| 20260904161303 | 83 | 294 | 1.0 | 3.0 | 0.00 | 0.08 | 0.02 | 78 | 1012.7 |
| 20260904161200 | 83 | 292 | 2.0 | 3.0 | 0.00 | 0.08 | 0.02 | 80 | 1012.7 |
| 20260904161002 | 82 | 287 | 1.0 | 2.0 | 0.00 | 0.08 | 0.02 | 78 | 1012.7 |
| 20260904160859 | 82 | 288 | 2.0 | 2.0 | 0.00 | 0.08 | 0.02 | 78 | 1012.7 |
| 20260904160800 | 82 | 288 | 0.0 | 2.0 | 0.00 | 0.08 | 0.02 | 79 | 1012.7 |
| 20260904160659 | 82 | 288 | 0.0 | 3.0 | 0.00 | 0.08 | 0.02 | 78 | 1012.7 |
| 20260904160502 | 82 | 287 | 2.0 | 4.0 | 0.00 | 0.08 | 0.02 | 79 | 1012.7 |
| 20260904160400 | 82 | 287 | 1.0 | 5.0 | 0.00 | 0.08 | 0.02 | 78 | 1012.7 |
| 20260904160259 | 82 | 286 | 0.0 | 5.0 | 0.00 | 0.08 | 0.02 | 79 | 1012.6 |
| 20260904160158 | 82 | 286 | 0.0 | 5.0 | 0.00 | 0.08 | 0.02 | 78 | 1012.7 |
| 20260904160057 | 82 | 286 | 0.0 | 5.0 | 0.00 | 0.08 | 0.02 | 77 | 1012.7 |
| 20260904160002 | 82 | 286 | 1.0 | 5.0 | 0.00 | 0.08 | 0.02 | 77 | 1012.6 |
| 20260904155759 | 82 | 286 | 1.0 | 5.0 | 0.00 | 0.09 | 0.02 | 80 | 1012.6 |
| 20260904155659 | 82 | 47 | 0.0 | 5.0 | 0.00 | 0.09 | 0.02 | 78 | 1012.6 |
| 20260904155600 | 82 | 47 | 2.0 | 5.0 | 0.00 | 0.09 | 0.02 | 76 | 1012.6 |
| 20260904155500 | 82 | 42 | 4.0 | 4.0 | 0.00 | 0.09 | 0.02 | 78 | 1012.7 |
| 20260904155359 | 82 | 360 | 3.0 | 4.0 | 0.00 | 0.09 | 0.02 | 77 | 1012.7 |
| 20260904155300 | 82 | 260 | 0.0 | 3.0 | 0.00 | 0.09 | 0.02 | 77 | 1012.7 |
| 20260904155159 | 82 | 259 | 1.0 | 3.0 | 0.00 | 0.09 | 0.02 | 77 | 1012.7 |
| 20260904155059 | 82 | 265 | 1.0 | 3.0 | 0.00 | 0.09 | 0.02 | 77 | 1012.8 |
| 20260904155003 | 82 | 265 | 0.0 | 3.0 | 0.00 | 0.09 | 0.02 | 78 | 1012.8 |
| 20260904154858 | 82 | 265 | 1.0 | 3.0 | 0.00 | 0.09 | 0.02 | 78 | 1012.8 |
| 20260904154800 | 82 | 265 | 2.0 | 3.0 | 0.00 | 0.09 | 0.02 | 78 | 1012.7 |
| 20260904154700 | 82 | 265 | 0.0 | 3.0 | 0.00 | 0.09 | 0.02 | 79 | 1012.8 |
| 20260904154559 | 82 | 265 | 0.0 | 3.0 | 0.00 | 0.09 | 0.02 | 77 | 1012.8 |
| 20260904154501 | 82 | 264 | 0.0 | 3.0 | 0.00 | 0.09 | 0.02 | 77 | 1012.8 |
| 20260904154359 | 82 | 264 | 2.0 | 3.0 | 0.00 | 0.09 | 0.02 | 77 | 1012.8 |
| 20260904154259 | 82 | 281 | 3.0 | 3.0 | 0.00 | 0.09 | 0.02 | 78 | 1012.8 |
| 20260904153859 | 82 | 21 | 1.0 | 3.0 | 0.00 | 0.09 | 0.02 | 76 | 1012.8 |
| 20260904153800 | 82 | 21 | 1.0 | 3.0 | 0.00 | 0.09 | 0.02 | 76 | 1012.8 |
| 20260904153559 | 82 | 21 | 2.0 | 3.0 | 0.00 | 0.09 | 0.02 | 77 | 1012.7 |
| 20260904153503 | 82 | 21 | 2.0 | 2.0 | 0.00 | 0.09 | 0.02 | 78 | 1012.7 |
| 20260904153359 | 82 | 21 | 1.0 | 4.0 | 0.00 | 0.09 | 0.02 | 77 | 1012.8 |
| 20260904153300 | 82 | 21 | 1.0 | 4.0 | 0.00 | 0.09 | 0.02 | 77 | 1012.7 |
| 20260904153159 | 82 | 21 | 0.0 | 4.0 | 0.00 | 0.09 | 0.02 | 77 | 1012.7 |
| 20260904153100 | 82 | 21 | 1.0 | 4.0 | 0.00 | 0.09 | 0.02 | 77 | 1012.8 |
| 20260904153001 | 82 | 21 | 1.0 | 4.0 | 0.00 | 0.09 | 0.02 | 77 | 1012.8 |
| 20260904152900 | 82 | 21 | 1.0 | 4.0 | 0.00 | 0.09 | 0.02 | 78 | 1012.8 |
| 20260904152759 | 82 | 21 | 0.0 | 4.0 | 0.00 | 0.09 | 0.02 | 77 | 1012.8 |
| 20260904152700 | 82 | 21 | 0.0 | 4.0 | 0.00 | 0.09 | 0.02 | 79 | 1012.7 |
| 20260904152600 | 82 | 23 | 0.0 | 4.0 | 0.00 | 0.09 | 0.02 | 80 | 1012.8 |
| 20260904152501 | 82 | 355 | 2.0 | 4.0 | 0.00 | 0.09 | 0.02 | 80 | 1012.8 |
| 20260904152259 | 82 | 307 | 2.0 | 3.0 | 0.00 | 0.09 | 0.02 | 77 | 1012.7 |
| 20260904152159 | 81 | 305 | 0.0 | 3.0 | 0.00 | 0.09 | 0.02 | 77 | 1012.7 |
| 20260904152059 | 81 | 305 | 0.0 | 3.0 | 0.00 | 0.09 | 0.02 | 75 | 1012.8 |
| 20260904152003 | 81 | 305 | 2.0 | 3.0 | 0.00 | 0.09 | 0.02 | 76 | 1012.8 |
| 20260904151859 | 82 | 305 | 2.0 | 3.0 | 0.00 | 0.09 | 0.02 | 77 | 1012.7 |
| 20260904151759 | 82 | 305 | 1.0 | 3.0 | 0.00 | 0.09 | 0.02 | 78 | 1012.7 |
| 20260904151559 | 82 | 283 | 3.0 | 3.0 | 0.00 | 0.09 | 0.02 | 81 | 1012.7 |
| 20260904151501 | 82 | 303 | 0.0 | 3.0 | 0.00 | 0.09 | 0.02 | 78 | 1012.7 |
| 20260904151259 | 82 | 303 | 0.0 | 3.0 | 0.00 | 0.09 | 0.02 | 78 | 1012.7 |
| 20260904151200 | 82 | 303 | 0.0 | 3.0 | 0.00 | 0.09 | 0.02 | 80 | 1012.7 |
| 20260904151100 | 82 | 5 | 0.0 | 3.0 | 0.00 | 0.09 | 0.02 | 82 | 1012.7 |
| 20260904151003 | 82 | 5 | 0.0 | 3.0 | 0.00 | 0.09 | 0.02 | 80 | 1012.7 |
| 20260904150900 | 81 | 5 | 0.0 | 3.0 | 0.00 | 0.09 | 0.02 | 80 | 1012.7 |
| 20260904150759 | 81 | 329 | 0.0 | 2.0 | 0.00 | 0.09 | 0.02 | 78 | 1012.7 |
| 20260904150659 | 81 | 329 | 0.0 | 2.0 | 0.00 | 0.09 | 0.02 | 79 | 1012.7 |
| 20260904150559 | 81 | 329 | 0.0 | 2.0 | 0.00 | 0.09 | 0.02 | 81 | 1012.7 |
| 20260904150500 | 81 | 329 | 0.0 | 3.0 | 0.00 | 0.09 | 0.02 | 79 | 1012.7 |
| 20260904150359 | 81 | 329 | 0.0 | 3.0 | 0.00 | 0.09 | 0.02 | 79 | 1012.7 |
| 20260904150259 | 81 | 329 | 0.0 | 3.0 | 0.00 | 0.09 | 0.02 | 78 | 1012.7 |
| 20260904150159 | 81 | 329 | 0.0 | 3.0 | 0.00 | 0.09 | 0.02 | 77 | 1012.7 |
| 20260904150100 | 81 | 329 | 0.0 | 3.0 | 0.00 | 0.09 | 0.02 | 77 | 1012.7 |
| 20260904150000 | 81 | 329 | 1.0 | 3.0 | 0.00 | 0.10 | 0.02 | 78 | 1012.7 |
| 20260904145858 | 81 | 329 | 2.0 | 3.0 | 0.00 | 0.10 | 0.02 | 78 | 1012.7 |
| 20260904145757 | 81 | 329 | 0.0 | 3.0 | 0.00 | 0.10 | 0.02 | 78 | 1012.7 |
| 20260904145659 | 81 | 329 | 1.0 | 3.0 | 0.00 | 0.10 | 0.02 | 77 | 1012.7 |
| 20260904145459 | 81 | 329 | 1.0 | 3.0 | 0.00 | 0.10 | 0.02 | 79 | 1012.7 |
| 20260904145358 | 81 | 329 | 1.0 | 3.0 | 0.00 | 0.10 | 0.02 | 79 | 1012.7 |
| 20260904145259 | 81 | 329 | 0.0 | 3.0 | 0.00 | 0.10 | 0.02 | 78 | 1012.7 |
| 20260904145158 | 81 | 329 | 1.0 | 3.0 | 0.00 | 0.10 | 0.02 | 79 | 1012.8 |
| 20260904145058 | 81 | 329 | 2.0 | 2.0 | 0.00 | 0.10 | 0.02 | 79 | 1012.8 |
| 20260904144858 | 81 | 329 | 0.0 | 3.0 | 0.00 | 0.10 | 0.02 | 80 | 1012.8 |
| 20260904144759 | 81 | 329 | 0.0 | 3.0 | 0.00 | 0.10 | 0.02 | 81 | 1012.7 |
| 20260904144659 | 81 | 329 | 0.0 | 3.0 | 0.00 | 0.10 | 0.02 | 82 | 1012.8 |
| 20260904144259 | 81 | 331 | 1.0 | 3.0 | 0.00 | 0.10 | 0.02 | 80 | 1012.7 |
| 20260904144158 | 80 | 330 | 2.0 | 3.0 | 0.00 | 0.10 | 0.02 | 81 | 1012.6 |
| 20260904143959 | 80 | 326 | 0.0 | 2.0 | 0.00 | 0.10 | 0.02 | 80 | 1012.6 |
| 20260904143858 | 80 | 326 | 0.0 | 2.0 | 0.00 | 0.10 | 0.02 | 81 | 1012.7 |
| 20260904143758 | 80 | 326 | 0.0 | 2.0 | 0.00 | 0.10 | 0.02 | 80 | 1012.8 |
| 20260904143658 | 80 | 326 | 2.0 | 2.0 | 0.00 | 0.10 | 0.02 | 80 | 1012.7 |
| 20260904143559 | 80 | 326 | 0.0 | 0.0 | 0.00 | 0.10 | 0.02 | 80 | 1012.8 |
| 20260904143500 | 80 | 326 | 0.0 | 1.0 | 0.00 | 0.10 | 0.02 | 80 | 1012.8 |
| 20260904143359 | 80 | 326 | 0.0 | 1.0 | 0.00 | 0.10 | 0.02 | 82 | 1012.8 |
| 20260904143258 | 80 | 326 | 0.0 | 1.0 | 0.00 | 0.10 | 0.02 | 82 | 1012.8 |
| 20260904143159 | 80 | 326 | 0.0 | 1.0 | 0.00 | 0.10 | 0.02 | 81 | 1012.9 |
| 20260904143058 | 80 | 326 | 0.0 | 1.0 | 0.00 | 0.10 | 0.02 | 80 | 1012.9 |
| 20260904143000 | 80 | 326 | 0.0 | 1.0 | 0.00 | 0.10 | 0.02 | 82 | 1012.8 |
| 20260904142859 | 80 | 326 | 0.0 | 2.0 | 0.00 | 0.10 | 0.02 | 81 | 1012.8 |
| 20260904142758 | 80 | 326 | 0.0 | 2.0 | 0.00 | 0.10 | 0.02 | 80 | 1012.8 |
| 20260904142659 | 80 | 326 | 0.0 | 3.0 | 0.00 | 0.10 | 0.02 | 82 | 1012.7 |
| 20260904142557 | 80 | 326 | 1.0 | 3.0 | 0.00 | 0.10 | 0.02 | 81 | 1012.8 |
| 20260904142358 | 80 | 326 | 0.0 | 3.0 | 0.00 | 0.10 | 0.02 | 81 | 1012.8 |
| 20260904142259 | 80 | 326 | 0.0 | 3.0 | 0.00 | 0.10 | 0.02 | 81 | 1012.8 |
| 20260904142158 | 80 | 326 | 0.0 | 3.0 | 0.00 | 0.10 | 0.02 | 82 | 1012.8 |
| 20260904142059 | 80 | 326 | 0.0 | 3.0 | 0.00 | 0.10 | 0.02 | 80 | 1012.8 |
| 20260904141959 | 80 | 326 | 0.0 | 3.0 | 0.00 | 0.10 | 0.02 | 81 | 1012.8 |
| 20260904141658 | 79 | 334 | 0.0 | 4.0 | 0.00 | 0.10 | 0.02 | 84 | 1012.8 |
| 20260904141501 | 79 | 334 | 0.0 | 4.0 | 0.00 | 0.10 | 0.02 | 84 | 1012.7 |
| 20260904141358 | 79 | 334 | 0.0 | 4.0 | 0.00 | 0.10 | 0.02 | 84 | 1012.8 |
| 20260904141258 | 79 | 334 | 0.0 | 4.0 | 0.00 | 0.10 | 0.02 | 83 | 1012.8 |
| 20260904141158 | 79 | 334 | 0.0 | 4.0 | 0.00 | 0.10 | 0.02 | 84 | 1012.8 |
| 20260904141058 | 79 | 334 | 0.0 | 4.0 | 0.00 | 0.10 | 0.02 | 82 | 1012.7 |